| time (UTC) | temp C | wind direction | speed KPH | gust KPH | rain 1hr cm | rain 24hr cm | rain mn cm | humidity % | barometer mb |
| 20260506110803 | 23 | 127 | 0.0 | 4.8 | 0.00 | 0.00 | 0.00 | 95 | 1006.7 |
| 20260506110702 | 23 | 140 | 0.0 | 4.8 | 0.00 | 0.00 | 0.00 | 95 | 1006.8 |
| 20260506110603 | 23 | 140 | 0.0 | 4.8 | 0.00 | 0.00 | 0.00 | 95 | 1006.8 |
| 20260506110504 | 23 | 131 | 1.6 | 4.8 | 0.00 | 0.00 | 0.00 | 95 | 1006.7 |
| 20260506110402 | 23 | 131 | 1.6 | 4.8 | 0.00 | 0.00 | 0.00 | 95 | 1006.7 |
| 20260506110302 | 23 | 130 | 1.6 | 4.8 | 0.00 | 0.00 | 0.00 | 95 | 1006.7 |
| 20260506110203 | 23 | 144 | 1.6 | 6.4 | 0.00 | 0.00 | 0.00 | 95 | 1006.7 |
| 20260506110002 | 23 | 135 | 3.2 | 6.4 | 0.00 | 0.00 | 0.00 | 95 | 1006.7 |
| 20260506105903 | 23 | 144 | 3.2 | 6.4 | 0.00 | 0.00 | 0.00 | 95 | 1006.6 |
| 20260506105802 | 23 | 147 | 1.6 | 6.4 | 0.00 | 0.00 | 0.00 | 95 | 1006.7 |
| 20260506105703 | 23 | 145 | 1.6 | 6.4 | 0.00 | 0.00 | 0.00 | 95 | 1006.6 |
| 20260506105603 | 23 | 145 | 1.6 | 6.4 | 0.00 | 0.00 | 0.00 | 95 | 1006.6 |
| 20260506105504 | 23 | 147 | 1.6 | 6.4 | 0.00 | 0.00 | 0.00 | 94 | 1006.6 |
| 20260506105402 | 23 | 144 | 3.2 | 6.4 | 0.00 | 0.00 | 0.00 | 95 | 1006.7 |
| 20260506105304 | 23 | 145 | 3.2 | 6.4 | 0.00 | 0.00 | 0.00 | 94 | 1006.7 |
| 20260506105203 | 23 | 145 | 3.2 | 6.4 | 0.00 | 0.00 | 0.00 | 95 | 1006.7 |
| 20260506105102 | 23 | 147 | 3.2 | 6.4 | 0.00 | 0.00 | 0.00 | 95 | 1006.7 |
| 20260506105003 | 23 | 162 | 1.6 | 6.4 | 0.00 | 0.00 | 0.00 | 95 | 1006.7 |
| 20260506104904 | 23 | 164 | 3.2 | 6.4 | 0.00 | 0.00 | 0.00 | 95 | 1006.8 |
| 20260506104802 | 23 | 144 | 3.2 | 6.4 | 0.00 | 0.00 | 0.00 | 95 | 1006.7 |
| 20260506104702 | 23 | 134 | 3.2 | 6.4 | 0.00 | 0.00 | 0.00 | 95 | 1006.7 |
| 20260506104601 | 23 | 142 | 3.2 | 6.4 | 0.00 | 0.00 | 0.00 | 95 | 1006.7 |
| 20260506104504 | 23 | 142 | 3.2 | 6.4 | 0.00 | 0.00 | 0.00 | 95 | 1006.6 |
| 20260506104404 | 23 | 155 | 3.2 | 6.4 | 0.00 | 0.00 | 0.00 | 95 | 1006.7 |
| 20260506104302 | 23 | 137 | 3.2 | 8.0 | 0.00 | 0.00 | 0.00 | 95 | 1006.7 |
| 20260506104203 | 23 | 148 | 3.2 | 8.0 | 0.00 | 0.00 | 0.00 | 95 | 1006.7 |
| 20260506104102 | 23 | 151 | 3.2 | 8.0 | 0.00 | 0.00 | 0.00 | 94 | 1006.7 |
| 20260506104002 | 23 | 161 | 4.8 | 8.0 | 0.00 | 0.00 | 0.00 | 94 | 1006.7 |
| 20260506103900 | 23 | 154 | 3.2 | 8.0 | 0.00 | 0.00 | 0.00 | 94 | 1006.7 |
| 20260506103800 | 23 | 162 | 1.6 | 8.0 | 0.00 | 0.00 | 0.00 | 94 | 1006.7 |
| 20260506103657 | 23 | 138 | 3.2 | 8.0 | 0.00 | 0.00 | 0.00 | 94 | 1006.7 |
| 20260506103557 | 23 | 178 | 3.2 | 8.0 | 0.00 | 0.00 | 0.00 | 94 | 1006.7 |
| 20260506103454 | 23 | 159 | 3.2 | 8.0 | 0.00 | 0.00 | 0.00 | 94 | 1006.7 |
| 20260506103353 | 23 | 182 | 3.2 | 8.0 | 0.00 | 0.00 | 0.00 | 94 | 1006.7 |
| 20260506103251 | 23 | 130 | 1.6 | 8.0 | 0.00 | 0.00 | 0.00 | 94 | 1006.6 |
| 20260506103151 | 23 | 140 | 0.0 | 8.0 | 0.00 | 0.00 | 0.00 | 94 | 1006.7 |
| 20260506103049 | 23 | 199 | 1.6 | 8.0 | 0.00 | 0.00 | 0.00 | 94 | 1006.7 |
| 20260506102945 | 23 | 199 | 3.2 | 8.0 | 0.00 | 0.00 | 0.00 | 94 | 1006.7 |
| 20260506102845 | 23 | 202 | 3.2 | 8.0 | 0.00 | 0.00 | 0.00 | 94 | 1006.6 |
| 20260506102742 | 23 | 125 | 3.2 | 8.0 | 0.00 | 0.00 | 0.00 | 94 | 1006.7 |
| 20260506102641 | 23 | 186 | 3.2 | 8.0 | 0.00 | 0.00 | 0.00 | 94 | 1006.7 |
| 20260506102539 | 23 | 140 | 3.2 | 8.0 | 0.00 | 0.00 | 0.00 | 94 | 1006.6 |
| 20260506102439 | 23 | 155 | 3.2 | 8.0 | 0.00 | 0.00 | 0.00 | 94 | 1006.6 |
| 20260506102335 | 23 | 183 | 3.2 | 8.0 | 0.00 | 0.00 | 0.00 | 94 | 1006.6 |
| 20260506102235 | 23 | 144 | 3.2 | 8.0 | 0.00 | 0.00 | 0.00 | 94 | 1006.5 |
| 20260506102133 | 23 | 171 | 3.2 | 9.7 | 0.00 | 0.00 | 0.00 | 94 | 1006.6 |
| 20260506102034 | 23 | 189 | 3.2 | 9.7 | 0.00 | 0.00 | 0.00 | 94 | 1006.6 |
| 20260506101931 | 23 | 161 | 3.2 | 9.7 | 0.00 | 0.00 | 0.00 | 94 | 1006.6 |
| 20260506101831 | 23 | 173 | 3.2 | 9.7 | 0.00 | 0.00 | 0.00 | 94 | 1006.6 |
| 20260506101732 | 23 | 121 | 4.8 | 9.7 | 0.00 | 0.00 | 0.00 | 94 | 1006.7 |
| 20260506101632 | 23 | 79 | 3.2 | 9.7 | 0.00 | 0.00 | 0.00 | 94 | 1006.7 |
| 20260506101530 | 23 | 159 | 3.2 | 9.7 | 0.00 | 0.00 | 0.00 | 94 | 1006.7 |
| 20260506101432 | 23 | 134 | 4.8 | 9.7 | 0.00 | 0.00 | 0.00 | 94 | 1006.7 |
| 20260506101332 | 23 | 214 | 3.2 | 9.7 | 0.00 | 0.00 | 0.00 | 94 | 1006.6 |
| 20260506101232 | 23 | 148 | 4.8 | 9.7 | 0.00 | 0.00 | 0.00 | 94 | 1006.6 |
| 20260506101131 | 23 | 161 | 4.8 | 9.7 | 0.00 | 0.00 | 0.00 | 94 | 1006.7 |
| 20260506101032 | 23 | 176 | 3.2 | 9.7 | 0.00 | 0.00 | 0.00 | 94 | 1006.6 |
| 20260506100930 | 23 | 162 | 4.8 | 9.7 | 0.00 | 0.00 | 0.00 | 94 | 1006.7 |
| 20260506100831 | 23 | 207 | 4.8 | 9.7 | 0.00 | 0.00 | 0.00 | 94 | 1006.6 |
| 20260506100732 | 23 | 141 | 4.8 | 9.7 | 0.00 | 0.00 | 0.00 | 94 | 1006.7 |
| 20260506100632 | 23 | 171 | 4.8 | 9.7 | 0.00 | 0.00 | 0.00 | 94 | 1006.7 |
| 20260506100532 | 23 | 142 | 4.8 | 9.7 | 0.00 | 0.00 | 0.00 | 94 | 1006.7 |
| 20260506100432 | 23 | 183 | 6.4 | 9.7 | 0.00 | 0.00 | 0.00 | 94 | 1006.6 |
| 20260506100332 | 23 | 199 | 6.4 | 9.7 | 0.00 | 0.00 | 0.00 | 94 | 1006.6 |
| 20260506100231 | 23 | 157 | 4.8 | 9.7 | 0.00 | 0.00 | 0.00 | 94 | 1006.5 |
| 20260506100132 | 23 | 182 | 4.8 | 14.5 | 0.00 | 0.00 | 0.00 | 94 | 1006.5 |
| 20260506100032 | 23 | 137 | 4.8 | 16.1 | 0.00 | 0.00 | 0.00 | 94 | 1006.5 |
| 20260506095931 | 24 | 162 | 4.8 | 16.1 | 0.00 | 0.00 | 0.00 | 94 | 1006.6 |
| 20260506095830 | 23 | 138 | 4.8 | 16.1 | 0.00 | 0.00 | 0.00 | 94 | 1006.5 |
| 20260506095732 | 24 | 124 | 3.2 | 16.1 | 0.00 | 0.00 | 0.00 | 94 | 1006.5 |
| 20260506095633 | 24 | 175 | 3.2 | 16.1 | 0.00 | 0.00 | 0.00 | 94 | 1006.5 |
| 20260506095531 | 24 | 157 | 4.8 | 16.1 | 0.00 | 0.00 | 0.00 | 94 | 1006.4 |
| 20260506095431 | 24 | 197 | 3.2 | 16.1 | 0.00 | 0.00 | 0.00 | 94 | 1006.4 |
| 20260506095333 | 24 | 178 | 6.4 | 16.1 | 0.00 | 0.00 | 0.00 | 94 | 1006.4 |
| 20260506095232 | 24 | 130 | 6.4 | 16.1 | 0.00 | 0.00 | 0.00 | 94 | 1006.4 |
| 20260506095131 | 24 | 116 | 4.8 | 19.3 | 0.00 | 0.00 | 0.00 | 93 | 1006.3 |
| 20260506095032 | 24 | 171 | 4.8 | 19.3 | 0.00 | 0.00 | 0.00 | 94 | 1006.3 |
| 20260506094932 | 24 | 131 | 6.4 | 19.3 | 0.00 | 0.00 | 0.00 | 94 | 1006.3 |
| 20260506094832 | 24 | 127 | 8.0 | 19.3 | 0.00 | 0.00 | 0.00 | 94 | 1006.2 |
| 20260506094731 | 24 | 168 | 6.4 | 19.3 | 0.00 | 0.00 | 0.00 | 94 | 1006.2 |
| 20260506094632 | 24 | 190 | 6.4 | 19.3 | 0.00 | 0.00 | 0.00 | 94 | 1006.2 |
| 20260506094531 | 24 | 235 | 6.4 | 19.3 | 0.00 | 0.00 | 0.00 | 94 | 1006.2 |
| 20260506094432 | 24 | 212 | 6.4 | 19.3 | 0.00 | 0.00 | 0.00 | 94 | 1006.2 |
| 20260506094332 | 24 | 168 | 8.0 | 19.3 | 0.00 | 0.00 | 0.00 | 94 | 1006.2 |
| 20260506094232 | 24 | 165 | 8.0 | 19.3 | 0.00 | 0.00 | 0.00 | 94 | 1006.2 |
| 20260506094131 | 24 | 157 | 6.4 | 17.7 | 0.00 | 0.00 | 0.00 | 94 | 1006.2 |
| 20260506094032 | 24 | 159 | 6.4 | 17.7 | 0.00 | 0.00 | 0.00 | 93 | 1006.2 |
| 20260506093932 | 24 | 133 | 8.0 | 17.7 | 0.00 | 0.00 | 0.00 | 93 | 1006.2 |
| 20260506093831 | 24 | 127 | 8.0 | 17.7 | 0.00 | 0.00 | 0.00 | 93 | 1006.2 |
| 20260506093731 | 24 | 168 | 6.4 | 16.1 | 0.00 | 0.00 | 0.00 | 93 | 1006.2 |
| 20260506093631 | 24 | 157 | 4.8 | 16.1 | 0.00 | 0.00 | 0.00 | 93 | 1006.2 |
| 20260506093532 | 24 | 213 | 6.4 | 17.7 | 0.00 | 0.00 | 0.00 | 93 | 1006.3 |
| 20260506093430 | 24 | 131 | 6.4 | 19.3 | 0.00 | 0.00 | 0.00 | 93 | 1006.3 |
| 20260506093331 | 24 | 149 | 4.8 | 19.3 | 0.00 | 0.00 | 0.00 | 93 | 1006.3 |
| 20260506093231 | 24 | 152 | 6.4 | 19.3 | 0.00 | 0.00 | 0.00 | 93 | 1006.3 |
| 20260506093130 | 24 | 188 | 8.0 | 19.3 | 0.00 | 0.00 | 0.00 | 93 | 1006.3 |
| 20260506093030 | 24 | 109 | 8.0 | 19.3 | 0.00 | 0.00 | 0.00 | 93 | 1006.3 |
| 20260506092930 | 24 | 142 | 6.4 | 19.3 | 0.00 | 0.00 | 0.00 | 93 | 1006.3 |
| 20260506092832 | 24 | 190 | 6.4 | 20.9 | 0.00 | 0.00 | 0.00 | 93 | 1006.3 |
| 20260506092730 | 24 | 168 | 9.7 | 20.9 | 0.00 | 0.00 | 0.00 | 93 | 1006.3 |
| 20260506092630 | 24 | 147 | 9.7 | 20.9 | 0.00 | 0.00 | 0.00 | 93 | 1006.4 |
| 20260506092532 | 24 | 179 | 8.0 | 20.9 | 0.00 | 0.00 | 0.00 | 93 | 1006.4 |
| 20260506092431 | 24 | 214 | 6.4 | 20.9 | 0.00 | 0.00 | 0.00 | 93 | 1006.4 |
| 20260506092331 | 24 | 183 | 8.0 | 20.9 | 0.00 | 0.00 | 0.00 | 93 | 1006.3 |
| 20260506092232 | 24 | 106 | 8.0 | 20.9 | 0.00 | 0.00 | 0.00 | 93 | 1006.4 |
| 20260506092132 | 24 | 138 | 8.0 | 20.9 | 0.00 | 0.00 | 0.00 | 93 | 1006.3 |
| 20260506092029 | 24 | 192 | 9.7 | 20.9 | 0.00 | 0.00 | 0.00 | 93 | 1006.3 |
| 20260506091930 | 24 | 134 | 9.7 | 20.9 | 0.00 | 0.00 | 0.00 | 93 | 1006.3 |
| 20260506091831 | 24 | 152 | 8.0 | 17.7 | 0.00 | 0.00 | 0.00 | 93 | 1006.3 |
| 20260506091731 | 24 | 165 | 9.7 | 17.7 | 0.00 | 0.00 | 0.00 | 93 | 1006.3 |
| 20260506091632 | 24 | 155 | 8.0 | 17.7 | 0.00 | 0.00 | 0.00 | 93 | 1006.3 |
| 20260506091532 | 24 | 185 | 6.4 | 16.1 | 0.00 | 0.00 | 0.00 | 93 | 1006.4 |
| 20260506091431 | 24 | 199 | 6.4 | 16.1 | 0.00 | 0.00 | 0.00 | 93 | 1006.4 |
| 20260506091329 | 24 | 99 | 6.4 | 17.7 | 0.00 | 0.00 | 0.00 | 93 | 1006.5 |
| 20260506091229 | 24 | 209 | 8.0 | 19.3 | 0.00 | 0.00 | 0.00 | 92 | 1006.4 |
| 20260506091131 | 24 | 152 | 8.0 | 19.3 | 0.00 | 0.00 | 0.00 | 92 | 1006.5 |
| 20260506091029 | 24 | 92 | 4.8 | 19.3 | 0.00 | 0.00 | 0.00 | 92 | 1006.5 |
| 20260506090929 | 24 | 117 | 6.4 | 19.3 | 0.00 | 0.00 | 0.00 | 92 | 1006.4 |
| 20260506090829 | 24 | 151 | 6.4 | 19.3 | 0.00 | 0.00 | 0.00 | 92 | 1006.5 |
| 20260506090731 | 24 | 183 | 4.8 | 19.3 | 0.00 | 0.00 | 0.00 | 92 | 1006.5 |
| 20260506090629 | 24 | 175 | 4.8 | 19.3 | 0.00 | 0.00 | 0.00 | 92 | 1006.5 |
| 20260506090530 | 24 | 142 | 9.7 | 19.3 | 0.00 | 0.00 | 0.00 | 92 | 1006.5 |
| 20260506090430 | 24 | 175 | 12.9 | 19.3 | 0.00 | 0.00 | 0.00 | 92 | 1006.4 |
| 20260506090330 | 24 | 178 | 9.7 | 19.3 | 0.00 | 0.00 | 0.00 | 92 | 1006.4 |
| 20260506090230 | 24 | 164 | 8.0 | 19.3 | 0.00 | 0.00 | 0.00 | 92 | 1006.4 |
| 20260506090130 | 24 | 186 | 6.4 | 19.3 | 0.00 | 0.00 | 0.00 | 92 | 1006.4 |
| 20260506090031 | 24 | 162 | 6.4 | 19.3 | 0.00 | 0.00 | 0.00 | 92 | 1006.4 |
| 20260506085931 | 24 | 113 | 8.0 | 19.3 | 0.00 | 0.00 | 0.00 | 92 | 1006.4 |
| 20260506085829 | 24 | 189 | 8.0 | 19.3 | 0.00 | 0.00 | 0.00 | 92 | 1006.4 |
| 20260506085731 | 24 | 192 | 8.0 | 19.3 | 0.00 | 0.00 | 0.00 | 92 | 1006.4 |
| 20260506085629 | 24 | 231 | 8.0 | 19.3 | 0.00 | 0.00 | 0.00 | 92 | 1006.5 |
| 20260506085531 | 24 | 121 | 11.3 | 19.3 | 0.00 | 0.00 | 0.00 | 92 | 1006.5 |
| 20260506085431 | 24 | 145 | 11.3 | 19.3 | 0.00 | 0.00 | 0.00 | 92 | 1006.5 |
| 20260506085329 | 24 | 195 | 8.0 | 19.3 | 0.00 | 0.00 | 0.00 | 92 | 1006.5 |
| 20260506085229 | 24 | 172 | 8.0 | 19.3 | 0.00 | 0.00 | 0.00 | 92 | 1006.5 |
| 20260506085130 | 24 | 159 | 8.0 | 19.3 | 0.00 | 0.00 | 0.00 | 92 | 1006.5 |
| 20260506085030 | 24 | 166 | 8.0 | 19.3 | 0.00 | 0.00 | 0.00 | 92 | 1006.5 |
| 20260506084930 | 24 | 142 | 6.4 | 19.3 | 0.00 | 0.00 | 0.00 | 92 | 1006.5 |
| 20260506084829 | 24 | 190 | 6.4 | 19.3 | 0.00 | 0.00 | 0.00 | 92 | 1006.6 |
| 20260506084731 | 24 | 140 | 9.7 | 19.3 | 0.00 | 0.00 | 0.00 | 92 | 1006.5 |
| 20260506084630 | 24 | 221 | 8.0 | 19.3 | 0.00 | 0.00 | 0.00 | 92 | 1006.6 |
| 20260506084530 | 24 | 159 | 6.4 | 19.3 | 0.00 | 0.00 | 0.00 | 92 | 1006.6 |
| 20260506084430 | 24 | 93 | 8.0 | 20.9 | 0.00 | 0.00 | 0.00 | 92 | 1006.6 |
| 20260506084331 | 25 | 166 | 9.7 | 20.9 | 0.00 | 0.00 | 0.00 | 92 | 1006.6 |
| 20260506084230 | 25 | 195 | 8.0 | 20.9 | 0.00 | 0.00 | 0.00 | 92 | 1006.6 |
| 20260506084129 | 25 | 111 | 8.0 | 20.9 | 0.00 | 0.00 | 0.00 | 92 | 1006.7 |
| 20260506084030 | 25 | 186 | 9.7 | 20.9 | 0.00 | 0.00 | 0.00 | 92 | 1006.7 |
| 20260506083929 | 25 | 118 | 9.7 | 20.9 | 0.00 | 0.00 | 0.00 | 92 | 1006.7 |
| 20260506083828 | 25 | 180 | 9.7 | 20.9 | 0.00 | 0.00 | 0.00 | 92 | 1006.8 |
| 20260506083728 | 25 | 193 | 9.7 | 20.9 | 0.00 | 0.00 | 0.00 | 92 | 1006.7 |
| 20260506083631 | 25 | 195 | 9.7 | 20.9 | 0.00 | 0.00 | 0.00 | 92 | 1006.7 |
| 20260506083528 | 25 | 210 | 9.7 | 20.9 | 0.00 | 0.00 | 0.00 | 92 | 1006.7 |
| 20260506083429 | 25 | 125 | 8.0 | 19.3 | 0.00 | 0.00 | 0.00 | 91 | 1006.7 |
| 20260506083330 | 25 | 110 | 8.0 | 19.3 | 0.00 | 0.00 | 0.00 | 91 | 1006.7 |
| 20260506083229 | 25 | 158 | 8.0 | 25.7 | 0.00 | 0.00 | 0.00 | 91 | 1006.7 |
| 20260506083129 | 25 | 158 | 6.4 | 25.7 | 0.00 | 0.00 | 0.00 | 91 | 1006.7 |
| 20260506083030 | 25 | 162 | 8.0 | 25.7 | 0.00 | 0.00 | 0.00 | 91 | 1006.7 |
| 20260506082930 | 25 | 159 | 9.7 | 25.7 | 0.00 | 0.00 | 0.00 | 91 | 1006.7 |
| 20260506082832 | 25 | 148 | 8.0 | 25.7 | 0.00 | 0.00 | 0.00 | 91 | 1006.7 |
| 20260506082729 | 25 | 192 | 6.4 | 25.7 | 0.00 | 0.00 | 0.00 | 91 | 1006.7 |
| 20260506082628 | 25 | 182 | 8.0 | 25.7 | 0.00 | 0.00 | 0.00 | 91 | 1006.7 |
| 20260506082529 | 25 | 240 | 11.3 | 25.7 | 0.00 | 0.00 | 0.00 | 91 | 1006.7 |
| 20260506082429 | 25 | 141 | 12.9 | 25.7 | 0.00 | 0.00 | 0.00 | 91 | 1006.7 |
| 20260506082329 | 25 | 161 | 9.7 | 25.7 | 0.00 | 0.00 | 0.00 | 91 | 1006.7 |
| 20260506082230 | 25 | 171 | 6.4 | 19.3 | 0.00 | 0.00 | 0.00 | 91 | 1006.7 |
| 20260506082129 | 25 | 180 | 4.8 | 19.3 | 0.00 | 0.00 | 0.00 | 91 | 1006.7 |
| 20260506082029 | 25 | 106 | 6.4 | 19.3 | 0.00 | 0.00 | 0.00 | 91 | 1006.7 |
| 20260506081929 | 25 | 182 | 9.7 | 19.3 | 0.00 | 0.00 | 0.00 | 91 | 1006.7 |
| 20260506081829 | 25 | 193 | 8.0 | 19.3 | 0.00 | 0.00 | 0.00 | 91 | 1006.8 |
| 20260506081729 | 25 | 200 | 6.4 | 17.7 | 0.00 | 0.00 | 0.00 | 91 | 1006.7 |
| 20260506081629 | 25 | 288 | 6.4 | 19.3 | 0.00 | 0.00 | 0.00 | 91 | 1006.7 |
| 20260506081530 | 25 | 179 | 6.4 | 19.3 | 0.00 | 0.00 | 0.00 | 91 | 1006.8 |
| 20260506081428 | 25 | 116 | 6.4 | 19.3 | 0.00 | 0.00 | 0.00 | 91 | 1006.8 |
| 20260506081329 | 25 | 204 | 3.2 | 19.3 | 0.00 | 0.00 | 0.00 | 91 | 1006.8 |
| 20260506081231 | 25 | 199 | 4.8 | 19.3 | 0.00 | 0.00 | 0.00 | 91 | 1006.8 |
| 20260506081128 | 25 | 180 | 6.4 | 19.3 | 0.00 | 0.00 | 0.00 | 91 | 1006.8 |
| 20260506081028 | 25 | 140 | 8.0 | 19.3 | 0.00 | 0.00 | 0.00 | 91 | 1006.9 |
| 20260506080928 | 25 | 204 | 9.7 | 19.3 | 0.00 | 0.00 | 0.00 | 91 | 1006.9 |
| 20260506080829 | 25 | 197 | 9.7 | 19.3 | 0.00 | 0.00 | 0.00 | 91 | 1006.8 |
| 20260506080729 | 25 | 226 | 8.0 | 19.3 | 0.00 | 0.00 | 0.00 | 91 | 1006.9 |
| 20260506080629 | 25 | 92 | 8.0 | 17.7 | 0.00 | 0.00 | 0.00 | 91 | 1006.9 |
| 20260506080530 | 25 | 193 | 11.3 | 17.7 | 0.00 | 0.00 | 0.00 | 91 | 1006.9 |
| 20260506080430 | 25 | 234 | 9.7 | 17.7 | 0.00 | 0.00 | 0.00 | 91 | 1006.9 |
| 20260506080320 | 25 | 165 | 9.7 | 17.7 | 0.00 | 0.00 | 0.00 | 91 | 1006.9 |
| 20260506080220 | 25 | 235 | 9.7 | 17.7 | 0.00 | 0.00 | 0.00 | 91 | 1006.9 |
| 20260506080119 | 25 | 188 | 6.4 | 17.7 | 0.00 | 0.00 | 0.00 | 91 | 1006.9 |
| 20260506073503 | 25 | 158 | 6.4 | 16.1 | 0.00 | 0.00 | 0.00 | 91 | 1007.1 |
| 20260506073404 | 25 | 171 | 4.8 | 16.1 | 0.00 | 0.00 | 0.00 | 91 | 1007.1 |
| 20260506073302 | 25 | 111 | 6.4 | 16.1 | 0.00 | 0.00 | 0.00 | 91 | 1007.1 |
| 20260506073202 | 25 | 130 | 8.0 | 16.1 | 0.00 | 0.00 | 0.00 | 91 | 1007.1 |
| 20260506073101 | 25 | 220 | 6.4 | 16.1 | 0.00 | 0.00 | 0.00 | 91 | 1007.1 |
| 20260506073004 | 25 | 130 | 8.0 | 16.1 | 0.00 | 0.00 | 0.00 | 91 | 1007.1 |
| 20260506072903 | 25 | 161 | 8.0 | 16.1 | 0.00 | 0.00 | 0.00 | 91 | 1007.2 |
| 20260506072802 | 25 | 157 | 6.4 | 16.1 | 0.00 | 0.00 | 0.00 | 91 | 1007.2 |
| 20260506072703 | 25 | 206 | 9.7 | 17.7 | 0.00 | 0.00 | 0.00 | 91 | 1007.1 |
| 20260506072603 | 25 | 185 | 8.0 | 19.3 | 0.00 | 0.00 | 0.00 | 91 | 1007.3 |
| 20260506072503 | 25 | 204 | 6.4 | 19.3 | 0.00 | 0.00 | 0.00 | 91 | 1007.2 |
| 20260506072404 | 25 | 162 | 4.8 | 19.3 | 0.00 | 0.00 | 0.00 | 91 | 1007.2 |
| 20260506072305 | 25 | 114 | 6.4 | 19.3 | 0.00 | 0.00 | 0.00 | 91 | 1007.1 |
| 20260506072203 | 25 | 131 | 6.4 | 19.3 | 0.00 | 0.00 | 0.00 | 91 | 1007.2 |
| 20260506072102 | 25 | 190 | 6.4 | 19.3 | 0.00 | 0.00 | 0.00 | 91 | 1007.2 |
| 20260506071958 | 25 | 140 | 6.4 | 19.3 | 0.00 | 0.00 | 0.00 | 91 | 1007.2 |
| 20260506071859 | 25 | 175 | 8.0 | 19.3 | 0.00 | 0.00 | 0.00 | 91 | 1007.2 |
| 20260506071756 | 25 | 135 | 9.7 | 19.3 | 0.00 | 0.00 | 0.00 | 91 | 1007.3 |
| 20260506071654 | 25 | 149 | 8.0 | 19.3 | 0.00 | 0.00 | 0.00 | 91 | 1007.3 |
| 20260506071553 | 25 | 203 | 8.0 | 19.3 | 0.00 | 0.00 | 0.00 | 91 | 1007.3 |
| 20260506071453 | 25 | 168 | 8.0 | 19.3 | 0.00 | 0.00 | 0.00 | 91 | 1007.3 |
| 20260506071350 | 25 | 164 | 8.0 | 16.1 | 0.00 | 0.00 | 0.00 | 91 | 1007.3 |
| 20260506071249 | 25 | 134 | 8.0 | 16.1 | 0.00 | 0.00 | 0.00 | 91 | 1007.3 |
| 20260506071147 | 25 | 188 | 6.4 | 16.1 | 0.00 | 0.00 | 0.00 | 91 | 1007.3 |
| 20260506071047 | 25 | 134 | 6.4 | 22.5 | 0.00 | 0.00 | 0.00 | 91 | 1007.4 |
| 20260506070946 | 25 | 123 | 6.4 | 22.5 | 0.00 | 0.00 | 0.00 | 91 | 1007.3 |
| 20260506070842 | 25 | 137 | 6.4 | 22.5 | 0.00 | 0.00 | 0.00 | 91 | 1007.3 |
| 20260506070741 | 25 | 204 | 6.4 | 22.5 | 0.00 | 0.00 | 0.00 | 91 | 1007.4 |
| 20260506070640 | 25 | 171 | 9.7 | 22.5 | 0.00 | 0.00 | 0.00 | 91 | 1007.4 |
| 20260506070537 | 25 | 141 | 8.0 | 22.5 | 0.00 | 0.00 | 0.00 | 91 | 1007.4 |
| 20260506070437 | 25 | 142 | 6.4 | 22.5 | 0.00 | 0.00 | 0.00 | 91 | 1007.4 |
| 20260506070335 | 25 | 137 | 6.4 | 24.1 | 0.00 | 0.00 | 0.00 | 91 | 1007.4 |
| 20260506070233 | 25 | 165 | 9.7 | 24.1 | 0.00 | 0.00 | 0.00 | 91 | 1007.5 |
| 20260506070134 | 25 | 142 | 9.7 | 24.1 | 0.00 | 0.00 | 0.00 | 91 | 1007.4 |
| 20260506062427 | 25 | 209 | 9.7 | 19.3 | 0.00 | 0.00 | 0.00 | 91 | 1007.6 |
| 20260506062326 | 25 | 171 | 9.7 | 19.3 | 0.00 | 0.00 | 0.00 | 91 | 1007.5 |
| 20260506062227 | 25 | 171 | 4.8 | 14.5 | 0.00 | 0.00 | 0.00 | 91 | 1007.6 |
| 20260506062127 | 25 | 213 | 6.4 | 17.7 | 0.00 | 0.00 | 0.00 | 91 | 1007.6 |
| 20260506062026 | 25 | 169 | 8.0 | 17.7 | 0.00 | 0.00 | 0.00 | 91 | 1007.5 |
| 20260506061928 | 25 | 227 | 8.0 | 17.7 | 0.00 | 0.00 | 0.00 | 91 | 1007.6 |
| 20260506061827 | 25 | 116 | 6.4 | 17.7 | 0.00 | 0.00 | 0.00 | 92 | 1007.6 |
| 20260506061726 | 25 | 117 | 3.2 | 17.7 | 0.00 | 0.00 | 0.00 | 92 | 1007.7 |
| 20260506061626 | 25 | 113 | 1.6 | 17.7 | 0.00 | 0.00 | 0.00 | 92 | 1007.7 |
| 20260506061526 | 25 | 161 | 4.8 | 17.7 | 0.00 | 0.00 | 0.00 | 92 | 1007.7 |
| 20260506061427 | 25 | 127 | 6.4 | 17.7 | 0.00 | 0.00 | 0.00 | 92 | 1007.7 |
| 20260506061326 | 25 | 190 | 8.0 | 17.7 | 0.00 | 0.00 | 0.00 | 92 | 1007.7 |
| 20260506061226 | 25 | 157 | 8.0 | 17.7 | 0.00 | 0.00 | 0.00 | 92 | 1007.7 |
| 20260506061126 | 25 | 193 | 6.4 | 11.3 | 0.00 | 0.00 | 0.00 | 92 | 1007.7 |
| 20260506061027 | 25 | 186 | 4.8 | 11.3 | 0.00 | 0.00 | 0.00 | 92 | 1007.7 |
| 20260506060926 | 25 | 148 | 4.8 | 11.3 | 0.00 | 0.00 | 0.00 | 92 | 1007.7 |
| 20260506060825 | 25 | 141 | 6.4 | 11.3 | 0.00 | 0.00 | 0.00 | 92 | 1007.7 |
| 20260506060726 | 25 | 141 | 4.8 | 11.3 | 0.00 | 0.00 | 0.00 | 92 | 1007.7 |
| 20260506060625 | 25 | 118 | 3.2 | 14.5 | 0.00 | 0.00 | 0.00 | 92 | 1007.7 |
| 20260506060525 | 25 | 128 | 4.8 | 14.5 | 0.00 | 0.00 | 0.00 | 92 | 1007.7 |
| 20260506060426 | 25 | 142 | 4.8 | 14.5 | 0.00 | 0.00 | 0.00 | 92 | 1007.7 |
| 20260506060325 | 25 | 110 | 4.8 | 14.5 | 0.00 | 0.00 | 0.00 | 92 | 1007.6 |
| 20260506060226 | 25 | 114 | 4.8 | 14.5 | 0.00 | 0.00 | 0.00 | 92 | 1007.7 |
| 20260506060125 | 25 | 103 | 3.2 | 14.5 | 0.00 | 0.00 | 0.00 | 92 | 1007.6 |
| 20260506051403 | 25 | 0 | 4.8 | 11.3 | 0.00 | 0.00 | 0.00 | 92 | 1007.6 |
| 20260506051303 | 25 | 71 | 4.8 | 11.3 | 0.00 | 0.00 | 0.00 | 92 | 1007.7 |
| 20260506051202 | 25 | 55 | 6.4 | 11.3 | 0.00 | 0.00 | 0.00 | 92 | 1007.6 |
| 20260506051102 | 25 | 62 | 4.8 | 11.3 | 0.00 | 0.00 | 0.00 | 92 | 1007.5 |
| 20260506051003 | 25 | 56 | 3.2 | 11.3 | 0.00 | 0.00 | 0.00 | 92 | 1007.5 |
| 20260506050902 | 25 | 58 | 6.4 | 11.3 | 0.00 | 0.00 | 0.00 | 92 | 1007.4 |
| 20260506050803 | 25 | 42 | 8.0 | 11.3 | 0.00 | 0.00 | 0.00 | 92 | 1007.4 |
| 20260506050703 | 25 | 63 | 6.4 | 14.5 | 0.00 | 0.00 | 0.00 | 92 | 1007.4 |
| 20260506050602 | 25 | 65 | 6.4 | 14.5 | 0.00 | 0.00 | 0.00 | 92 | 1007.4 |
| 20260506050503 | 25 | 0 | 6.4 | 14.5 | 0.00 | 0.00 | 0.00 | 92 | 1007.4 |
| 20260506050404 | 25 | 56 | 3.2 | 14.5 | 0.00 | 0.00 | 0.00 | 92 | 1007.5 |
| 20260506050302 | 25 | 35 | 4.8 | 14.5 | 0.00 | 0.00 | 0.00 | 92 | 1007.4 |
| 20260506050202 | 25 | 0 | 6.4 | 14.5 | 0.00 | 0.00 | 0.00 | 92 | 1007.5 |
| 20260506050103 | 25 | 52 | 6.4 | 14.5 | 0.00 | 0.00 | 0.00 | 92 | 1007.4 |
| 20260506045103 | 25 | 0 | 8.0 | 19.3 | 0.00 | 0.00 | 0.00 | 92 | 1007.6 |
| 20260506045003 | 25 | 37 | 6.4 | 19.3 | 0.00 | 0.00 | 0.00 | 92 | 1007.7 |
| 20260506044902 | 25 | 0 | 6.4 | 19.3 | 0.00 | 0.00 | 0.00 | 92 | 1007.6 |
| 20260506044801 | 25 | 55 | 6.4 | 19.3 | 0.00 | 0.00 | 0.00 | 92 | 1007.7 |
| 20260506044701 | 25 | 34 | 8.0 | 19.3 | 0.00 | 0.00 | 0.00 | 92 | 1007.7 |
| 20260506044603 | 25 | 0 | 8.0 | 19.3 | 0.00 | 0.00 | 0.00 | 92 | 1007.6 |
| 20260506044504 | 25 | 0 | 8.0 | 16.1 | 0.00 | 0.00 | 0.00 | 92 | 1007.6 |
| 20260506044402 | 25 | 56 | 9.7 | 16.1 | 0.00 | 0.00 | 0.00 | 92 | 1007.6 |
| 20260506044302 | 25 | 0 | 9.7 | 16.1 | 0.00 | 0.00 | 0.00 | 92 | 1007.7 |
| 20260506044202 | 25 | 59 | 6.4 | 16.1 | 0.00 | 0.00 | 0.00 | 92 | 1007.7 |
| 20260506044101 | 25 | 59 | 3.2 | 16.1 | 0.00 | 0.00 | 0.00 | 92 | 1007.7 |
| 20260506044002 | 25 | 49 | 6.4 | 16.1 | 0.00 | 0.00 | 0.00 | 91 | 1007.7 |
| 20260506043904 | 25 | 52 | 6.4 | 16.1 | 0.00 | 0.00 | 0.00 | 91 | 1007.7 |
| 20260506043802 | 25 | 51 | 8.0 | 16.1 | 0.00 | 0.00 | 0.00 | 91 | 1007.7 |
| 20260506043702 | 25 | 49 | 6.4 | 14.5 | 0.00 | 0.00 | 0.00 | 91 | 1007.7 |
| 20260506043603 | 25 | 42 | 4.8 | 14.5 | 0.00 | 0.00 | 0.00 | 91 | 1007.7 |
| 20260506043503 | 25 | 0 | 3.2 | 14.5 | 0.00 | 0.00 | 0.00 | 91 | 1007.7 |
| 20260506043402 | 25 | 179 | 6.4 | 14.5 | 0.00 | 0.00 | 0.00 | 91 | 1007.7 |
| 20260506043303 | 25 | 147 | 6.4 | 14.5 | 0.00 | 0.00 | 0.00 | 91 | 1007.7 |
| 20260506043202 | 25 | 107 | 3.2 | 16.1 | 0.00 | 0.00 | 0.00 | 91 | 1007.7 |
| 20260506043103 | 25 | 172 | 1.6 | 16.1 | 0.00 | 0.00 | 0.00 | 91 | 1007.6 |
| 20260506043002 | 25 | 152 | 3.2 | 16.1 | 0.00 | 0.00 | 0.00 | 91 | 1007.6 |
| 20260506042903 | 25 | 173 | 6.4 | 16.1 | 0.00 | 0.00 | 0.00 | 91 | 1007.6 |
| 20260506042802 | 25 | 173 | 6.4 | 16.1 | 0.00 | 0.00 | 0.00 | 91 | 1007.6 |
| 20260506042702 | 25 | 111 | 6.4 | 16.1 | 0.00 | 0.00 | 0.00 | 91 | 1007.6 |
| 20260506042603 | 25 | 142 | 8.0 | 16.1 | 0.00 | 0.00 | 0.00 | 91 | 1007.5 |
| 20260506042502 | 25 | 183 | 8.0 | 19.3 | 0.00 | 0.00 | 0.00 | 91 | 1007.5 |
| 20260506042403 | 25 | 179 | 8.0 | 19.3 | 0.00 | 0.00 | 0.00 | 91 | 1007.5 |
| 20260506042305 | 25 | 148 | 6.4 | 19.3 | 0.00 | 0.00 | 0.00 | 91 | 1007.5 |
| 20260506042203 | 25 | 158 | 4.8 | 19.3 | 0.00 | 0.00 | 0.00 | 91 | 1007.5 |
| 20260506042102 | 25 | 214 | 4.8 | 19.3 | 0.00 | 0.00 | 0.00 | 91 | 1007.5 |
| 20260506042004 | 25 | 196 | 6.4 | 19.3 | 0.00 | 0.00 | 0.00 | 90 | 1007.5 |
| 20260506041902 | 25 | 157 | 6.4 | 19.3 | 0.00 | 0.00 | 0.00 | 90 | 1007.5 |
| 20260506041803 | 25 | 185 | 6.4 | 19.3 | 0.00 | 0.00 | 0.00 | 90 | 1007.4 |
| 20260506041702 | 25 | 148 | 9.7 | 19.3 | 0.00 | 0.00 | 0.00 | 90 | 1007.5 |
| 20260506041603 | 25 | 173 | 9.7 | 19.3 | 0.00 | 0.00 | 0.00 | 90 | 1007.5 |
| 20260506041504 | 25 | 161 | 6.4 | 22.5 | 0.00 | 0.00 | 0.00 | 90 | 1007.4 |
| 20260506041403 | 25 | 209 | 8.0 | 22.5 | 0.00 | 0.00 | 0.00 | 90 | 1007.5 |
| 20260506041303 | 25 | 158 | 8.0 | 22.5 | 0.00 | 0.00 | 0.00 | 90 | 1007.5 |
| 20260506041202 | 25 | 190 | 9.7 | 22.5 | 0.00 | 0.00 | 0.00 | 90 | 1007.4 |
| 20260506041102 | 25 | 145 | 8.0 | 22.5 | 0.00 | 0.00 | 0.00 | 90 | 1007.4 |
| 20260506041003 | 25 | 171 | 8.0 | 22.5 | 0.00 | 0.00 | 0.00 | 90 | 1007.4 |
| 20260506040903 | 25 | 176 | 11.3 | 22.5 | 0.00 | 0.00 | 0.00 | 89 | 1007.4 |
| 20260506040803 | 25 | 152 | 11.3 | 24.1 | 0.00 | 0.00 | 0.00 | 89 | 1007.4 |
| 20260506040703 | 25 | 171 | 12.9 | 24.1 | 0.00 | 0.00 | 0.00 | 89 | 1007.4 |
| 20260506040603 | 25 | 144 | 11.3 | 24.1 | 0.00 | 0.00 | 0.00 | 89 | 1007.4 |
| 20260506040503 | 25 | 183 | 9.7 | 24.1 | 0.00 | 0.00 | 0.00 | 89 | 1007.4 |
| 20260506040402 | 25 | 127 | 8.0 | 24.1 | 0.00 | 0.00 | 0.00 | 89 | 1007.4 |
| 20260506040303 | 25 | 140 | 9.7 | 24.1 | 0.00 | 0.00 | 0.00 | 89 | 1007.4 |
| 20260506040204 | 25 | 213 | 9.7 | 24.1 | 0.00 | 0.00 | 0.00 | 89 | 1007.4 |
| 20260506040002 | 25 | 189 | 12.9 | 24.1 | 0.00 | 0.00 | 0.00 | 89 | 1007.4 |
| 20260506035904 | 25 | 135 | 12.9 | 24.1 | 0.00 | 0.00 | 0.00 | 89 | 1007.4 |
| 20260506035803 | 25 | 152 | 11.3 | 22.5 | 0.00 | 0.00 | 0.00 | 89 | 1007.4 |
| 20260506035701 | 25 | 178 | 9.7 | 22.5 | 0.00 | 0.00 | 0.00 | 89 | 1007.3 |
| 20260506035602 | 25 | 147 | 12.9 | 22.5 | 0.00 | 0.00 | 0.00 | 89 | 1007.4 |
| 20260506035504 | 25 | 149 | 11.3 | 22.5 | 0.00 | 0.00 | 0.00 | 89 | 1007.4 |
| 20260506035402 | 25 | 154 | 9.7 | 22.5 | 0.00 | 0.00 | 0.00 | 89 | 1007.4 |
| 20260506035305 | 25 | 155 | 9.7 | 19.3 | 0.00 | 0.00 | 0.00 | 89 | 1007.4 |
| 20260506035203 | 25 | 152 | 8.0 | 19.3 | 0.00 | 0.00 | 0.00 | 89 | 1007.5 |
| 20260506035103 | 25 | 147 | 9.7 | 19.3 | 0.00 | 0.00 | 0.00 | 89 | 1007.5 |
| 20260506035002 | 25 | 120 | 9.7 | 19.3 | 0.00 | 0.00 | 0.00 | 89 | 1007.4 |
| 20260506034903 | 25 | 185 | 8.0 | 19.3 | 0.00 | 0.00 | 0.00 | 89 | 1007.5 |
| 20260506034804 | 25 | 94 | 8.0 | 20.9 | 0.00 | 0.00 | 0.00 | 89 | 1007.4 |
| 20260506034702 | 25 | 127 | 6.4 | 20.9 | 0.00 | 0.00 | 0.00 | 89 | 1007.4 |
| 20260506034602 | 25 | 199 | 4.8 | 20.9 | 0.00 | 0.00 | 0.00 | 89 | 1007.4 |
| 20260506034503 | 25 | 137 | 6.4 | 20.9 | 0.00 | 0.00 | 0.00 | 89 | 1007.4 |
| 20260506034402 | 25 | 128 | 4.8 | 20.9 | 0.00 | 0.00 | 0.00 | 88 | 1007.3 |
| 20260506034302 | 25 | 54 | 6.4 | 20.9 | 0.00 | 0.00 | 0.00 | 88 | 1007.3 |
| 20260506034204 | 25 | 171 | 9.7 | 20.9 | 0.00 | 0.00 | 0.00 | 88 | 1007.4 |
| 20260506034102 | 25 | 155 | 11.3 | 20.9 | 0.00 | 0.00 | 0.00 | 88 | 1007.3 |
| 20260506034002 | 25 | 157 | 12.9 | 20.9 | 0.00 | 0.00 | 0.00 | 88 | 1007.3 |
| 20260506033902 | 25 | 137 | 8.0 | 20.9 | 0.00 | 0.00 | 0.00 | 88 | 1007.3 |
| 20260506033803 | 25 | 120 | 8.0 | 20.9 | 0.00 | 0.00 | 0.00 | 88 | 1007.3 |
| 20260506033702 | 25 | 65 | 8.0 | 20.9 | 0.00 | 0.00 | 0.00 | 88 | 1007.3 |
| 20260506033603 | 25 | 152 | 6.4 | 20.9 | 0.00 | 0.00 | 0.00 | 88 | 1007.2 |
| 20260506033503 | 25 | 151 | 9.7 | 20.9 | 0.00 | 0.00 | 0.00 | 88 | 1007.3 |
| 20260506033402 | 25 | 178 | 12.9 | 24.1 | 0.00 | 0.00 | 0.00 | 88 | 1007.2 |
| 20260506033301 | 25 | 121 | 11.3 | 24.1 | 0.00 | 0.00 | 0.00 | 88 | 1007.2 |
| 20260506033201 | 25 | 137 | 9.7 | 24.1 | 0.00 | 0.00 | 0.00 | 88 | 1007.2 |
| 20260506033103 | 25 | 183 | 11.3 | 24.1 | 0.00 | 0.00 | 0.00 | 88 | 1007.2 |
| 20260506033002 | 25 | 147 | 9.7 | 24.1 | 0.00 | 0.00 | 0.00 | 88 | 1007.1 |
| 20260506032859 | 25 | 186 | 8.0 | 24.1 | 0.00 | 0.00 | 0.00 | 88 | 1007.1 |
| 20260506032758 | 25 | 89 | 9.7 | 24.1 | 0.00 | 0.00 | 0.00 | 88 | 1007.1 |
| 20260506032656 | 25 | 155 | 9.7 | 24.1 | 0.00 | 0.00 | 0.00 | 88 | 1007.1 |
| 20260506032555 | 25 | 176 | 9.7 | 24.1 | 0.00 | 0.00 | 0.00 | 88 | 1007.0 |
| 20260506032453 | 25 | 168 | 9.7 | 24.1 | 0.00 | 0.00 | 0.00 | 88 | 1007.0 |
| 20260506032353 | 25 | 120 | 6.4 | 22.5 | 0.00 | 0.00 | 0.00 | 88 | 1007.0 |
| 20260506032250 | 25 | 124 | 6.4 | 22.5 | 0.00 | 0.00 | 0.00 | 88 | 1007.0 |
| 20260506032148 | 25 | 213 | 6.4 | 22.5 | 0.00 | 0.00 | 0.00 | 88 | 1007.0 |
| 20260506032047 | 25 | 120 | 8.0 | 22.5 | 0.00 | 0.00 | 0.00 | 88 | 1007.0 |
| 20260506031946 | 25 | 169 | 9.7 | 22.5 | 0.00 | 0.00 | 0.00 | 88 | 1007.0 |
| 20260506031845 | 25 | 83 | 9.7 | 22.5 | 0.00 | 0.00 | 0.00 | 88 | 1006.9 |
| 20260506031743 | 25 | 195 | 8.0 | 22.5 | 0.00 | 0.00 | 0.00 | 88 | 1006.9 |
| 20260506031642 | 25 | 243 | 9.7 | 19.3 | 0.00 | 0.00 | 0.00 | 88 | 1007.0 |
| 20260506031538 | 25 | 173 | 9.7 | 19.3 | 0.00 | 0.00 | 0.00 | 87 | 1006.9 |
| 20260506031438 | 25 | 178 | 9.7 | 27.4 | 0.00 | 0.00 | 0.00 | 87 | 1006.9 |
| 20260506031337 | 25 | 148 | 8.0 | 27.4 | 0.00 | 0.00 | 0.00 | 87 | 1006.9 |
| 20260506031236 | 25 | 172 | 9.7 | 27.4 | 0.00 | 0.00 | 0.00 | 87 | 1006.9 |
| 20260506031130 | 25 | 172 | 11.3 | 27.4 | 0.00 | 0.00 | 0.00 | 87 | 1006.8 |
| 20260506031032 | 25 | 189 | 9.7 | 27.4 | 0.00 | 0.00 | 0.00 | 87 | 1006.8 |
| 20260506030931 | 25 | 149 | 8.0 | 27.4 | 0.00 | 0.00 | 0.00 | 87 | 1006.9 |
| 20260506030832 | 25 | 148 | 8.0 | 27.4 | 0.00 | 0.00 | 0.00 | 87 | 1006.9 |
| 20260506030730 | 25 | 141 | 8.0 | 27.4 | 0.00 | 0.00 | 0.00 | 87 | 1006.9 |
| 20260506030631 | 25 | 142 | 9.7 | 27.4 | 0.00 | 0.00 | 0.00 | 87 | 1007.0 |
| 20260506030530 | 25 | 189 | 9.7 | 27.4 | 0.00 | 0.00 | 0.00 | 87 | 1007.0 |
| 20260506030429 | 25 | 149 | 9.7 | 25.7 | 0.00 | 0.00 | 0.00 | 87 | 1007.0 |
| 20260506030327 | 25 | 192 | 11.3 | 25.7 | 0.00 | 0.00 | 0.00 | 87 | 1007.0 |
| 20260506030226 | 25 | 172 | 9.7 | 25.7 | 0.00 | 0.00 | 0.00 | 87 | 1006.9 |
| 20260506030124 | 25 | 202 | 12.9 | 25.7 | 0.00 | 0.00 | 0.00 | 87 | 1006.9 |
| 20260506030023 | 25 | 197 | 12.9 | 25.7 | 0.00 | 0.00 | 0.00 | 87 | 1006.9 |
| 20260506025922 | 25 | 203 | 11.3 | 25.7 | 0.00 | 0.00 | 0.00 | 87 | 1006.9 |
| 20260506025821 | 25 | 152 | 12.9 | 25.7 | 0.00 | 0.00 | 0.00 | 87 | 1006.9 |
| 20260506025721 | 25 | 155 | 14.5 | 25.7 | 0.00 | 0.00 | 0.00 | 87 | 1006.9 |
| 20260506025623 | 25 | 189 | 11.3 | 24.1 | 0.00 | 0.00 | 0.00 | 87 | 1006.8 |
| 20260506025521 | 25 | 140 | 8.0 | 24.1 | 0.00 | 0.00 | 0.00 | 87 | 1006.9 |
| 20260506025421 | 25 | 154 | 8.0 | 24.1 | 0.00 | 0.00 | 0.00 | 87 | 1006.8 |
| 20260506025322 | 25 | 220 | 8.0 | 24.1 | 0.00 | 0.00 | 0.00 | 87 | 1006.9 |
| 20260506025222 | 25 | 182 | 4.8 | 24.1 | 0.00 | 0.00 | 0.00 | 87 | 1006.8 |
| 20260506025121 | 25 | 159 | 9.7 | 25.7 | 0.00 | 0.00 | 0.00 | 87 | 1006.9 |
| 20260506025021 | 25 | 123 | 11.3 | 25.7 | 0.00 | 0.00 | 0.00 | 87 | 1006.8 |
| 20260506024923 | 25 | 75 | 9.7 | 25.7 | 0.00 | 0.00 | 0.00 | 87 | 1006.7 |
| 20260506024822 | 25 | 195 | 9.7 | 25.7 | 0.00 | 0.00 | 0.00 | 87 | 1006.7 |
| 20260506024721 | 25 | 209 | 9.7 | 25.7 | 0.00 | 0.00 | 0.00 | 87 | 1006.6 |
| 20260506024622 | 25 | 195 | 9.7 | 25.7 | 0.00 | 0.00 | 0.00 | 87 | 1006.6 |
| 20260506024521 | 25 | 114 | 11.3 | 25.7 | 0.00 | 0.00 | 0.00 | 87 | 1006.6 |
| 20260506024423 | 25 | 166 | 9.7 | 25.7 | 0.00 | 0.00 | 0.00 | 87 | 1006.6 |
| 20260506024321 | 25 | 164 | 11.3 | 25.7 | 0.00 | 0.00 | 0.00 | 87 | 1006.5 |
| 20260506024222 | 25 | 154 | 11.3 | 25.7 | 0.00 | 0.00 | 0.00 | 87 | 1006.5 |
| 20260506024120 | 26 | 180 | 9.7 | 19.3 | 0.00 | 0.00 | 0.00 | 87 | 1006.5 |
| 20260506024021 | 26 | 89 | 8.0 | 19.3 | 0.00 | 0.00 | 0.00 | 87 | 1006.5 |
| 20260506023923 | 26 | 161 | 9.7 | 19.3 | 0.00 | 0.00 | 0.00 | 87 | 1006.5 |
| 20260506023821 | 26 | 196 | 9.7 | 19.3 | 0.00 | 0.00 | 0.00 | 87 | 1006.4 |
| 20260506023722 | 26 | 144 | 9.7 | 19.3 | 0.00 | 0.00 | 0.00 | 87 | 1006.4 |
| 20260506023622 | 26 | 154 | 9.7 | 20.9 | 0.00 | 0.00 | 0.00 | 87 | 1006.4 |
| 20260506023522 | 26 | 135 | 9.7 | 20.9 | 0.00 | 0.00 | 0.00 | 87 | 1006.5 |
| 20260506023421 | 26 | 197 | 9.7 | 20.9 | 0.00 | 0.00 | 0.00 | 86 | 1006.4 |
| 20260506023321 | 26 | 173 | 9.7 | 20.9 | 0.00 | 0.00 | 0.00 | 86 | 1006.4 |
| 20260506023220 | 26 | 193 | 9.7 | 20.9 | 0.00 | 0.00 | 0.00 | 86 | 1006.4 |
| 20260506023120 | 26 | 166 | 6.4 | 20.9 | 0.00 | 0.00 | 0.00 | 86 | 1006.4 |
| 20260506023021 | 26 | 221 | 6.4 | 20.9 | 0.00 | 0.00 | 0.00 | 86 | 1006.5 |
| 20260506022920 | 26 | 147 | 8.0 | 20.9 | 0.00 | 0.00 | 0.00 | 86 | 1006.4 |
| 20260506022820 | 26 | 147 | 11.3 | 20.9 | 0.00 | 0.00 | 0.00 | 86 | 1006.4 |
| 20260506022721 | 26 | 121 | 9.7 | 22.5 | 0.00 | 0.00 | 0.00 | 86 | 1006.4 |
| 20260506022621 | 26 | 123 | 6.4 | 22.5 | 0.00 | 0.00 | 0.00 | 86 | 1006.4 |
| 20260506022522 | 26 | 103 | 9.7 | 22.5 | 0.00 | 0.00 | 0.00 | 86 | 1006.4 |
| 20260506022421 | 26 | 202 | 9.7 | 22.5 | 0.00 | 0.00 | 0.00 | 86 | 1006.3 |
| 20260506022321 | 26 | 151 | 6.4 | 22.5 | 0.00 | 0.00 | 0.00 | 86 | 1006.3 |
| 20260506022220 | 26 | 166 | 6.4 | 24.1 | 0.00 | 0.00 | 0.00 | 86 | 1006.3 |
| 20260506022121 | 26 | 154 | 8.0 | 24.1 | 0.00 | 0.00 | 0.00 | 86 | 1006.3 |
| 20260506022021 | 26 | 109 | 9.7 | 24.1 | 0.00 | 0.00 | 0.00 | 86 | 1006.3 |
| 20260506021921 | 26 | 89 | 8.0 | 24.1 | 0.00 | 0.00 | 0.00 | 86 | 1006.3 |
| 20260506021822 | 26 | 199 | 4.8 | 24.1 | 0.00 | 0.00 | 0.00 | 86 | 1006.2 |
| 20260506021721 | 26 | 120 | 4.8 | 24.1 | 0.00 | 0.00 | 0.00 | 86 | 1006.2 |
| 20260506021620 | 26 | 120 | 6.4 | 24.1 | 0.00 | 0.00 | 0.00 | 86 | 1006.3 |
| 20260506021523 | 26 | 199 | 11.3 | 24.1 | 0.00 | 0.00 | 0.00 | 86 | 1006.2 |
| 20260506021420 | 26 | 190 | 12.9 | 24.1 | 0.00 | 0.00 | 0.00 | 86 | 1006.2 |
| 20260506021321 | 26 | 162 | 9.7 | 24.1 | 0.00 | 0.00 | 0.00 | 86 | 1006.2 |
| 20260506021221 | 26 | 272 | 6.4 | 22.5 | 0.00 | 0.00 | 0.00 | 86 | 1006.1 |
| 20260506021122 | 26 | 157 | 6.4 | 22.5 | 0.00 | 0.00 | 0.00 | 86 | 1006.2 |
| 20260506021020 | 26 | 118 | 6.4 | 22.5 | 0.00 | 0.00 | 0.00 | 86 | 1006.1 |
| 20260506020920 | 26 | 226 | 8.0 | 22.5 | 0.00 | 0.00 | 0.00 | 86 | 1006.2 |
| 20260506020821 | 26 | 182 | 9.7 | 22.5 | 0.00 | 0.00 | 0.00 | 86 | 1006.0 |
| 20260506020721 | 26 | 135 | 9.7 | 22.5 | 0.00 | 0.00 | 0.00 | 86 | 1006.0 |
| 20260506020620 | 26 | 158 | 12.9 | 22.5 | 0.00 | 0.00 | 0.00 | 86 | 1006.0 |
| 20260506020520 | 26 | 158 | 12.9 | 24.1 | 0.00 | 0.00 | 0.00 | 86 | 1006.0 |
| 20260506020421 | 26 | 195 | 9.7 | 24.1 | 0.00 | 0.00 | 0.00 | 86 | 1006.1 |
| 20260506020321 | 26 | 161 | 8.0 | 24.1 | 0.00 | 0.00 | 0.00 | 86 | 1006.0 |
| 20260506020220 | 26 | 131 | 6.4 | 24.1 | 0.00 | 0.00 | 0.00 | 86 | 1006.1 |
| 20260506020121 | 26 | 261 | 6.4 | 24.1 | 0.00 | 0.00 | 0.00 | 86 | 1006.1 |
| 20260506020020 | 26 | 235 | 8.0 | 24.1 | 0.00 | 0.00 | 0.00 | 86 | 1006.1 |
| 20260506015920 | 26 | 168 | 9.7 | 24.1 | 0.00 | 0.00 | 0.00 | 86 | 1006.0 |
| 20260506015821 | 26 | 200 | 12.9 | 24.1 | 0.00 | 0.00 | 0.00 | 86 | 1006.0 |
| 20260506015722 | 26 | 186 | 12.9 | 24.1 | 0.00 | 0.00 | 0.00 | 86 | 1006.1 |
| 20260506015620 | 26 | 164 | 11.3 | 24.1 | 0.00 | 0.00 | 0.00 | 85 | 1006.0 |
| 20260506015519 | 26 | 226 | 9.7 | 24.1 | 0.00 | 0.00 | 0.00 | 86 | 1006.0 |
| 20260506015422 | 26 | 113 | 8.0 | 24.1 | 0.00 | 0.00 | 0.00 | 86 | 1005.9 |
| 20260506015319 | 26 | 171 | 9.7 | 24.1 | 0.00 | 0.00 | 0.00 | 85 | 1005.9 |
| 20260506015220 | 26 | 148 | 8.0 | 24.1 | 0.00 | 0.00 | 0.00 | 85 | 1005.9 |
| 20260506015120 | 26 | 135 | 6.4 | 24.1 | 0.00 | 0.00 | 0.00 | 85 | 1005.9 |
| 20260506015020 | 26 | 155 | 8.0 | 24.1 | 0.00 | 0.00 | 0.00 | 85 | 1005.9 |
| 20260506014920 | 26 | 190 | 11.3 | 24.1 | 0.00 | 0.00 | 0.00 | 85 | 1005.9 |
| 20260506014819 | 26 | 161 | 9.7 | 24.1 | 0.00 | 0.00 | 0.00 | 85 | 1005.8 |
| 20260506014720 | 26 | 128 | 6.4 | 19.3 | 0.00 | 0.00 | 0.00 | 85 | 1005.8 |
| 20260506014619 | 26 | 157 | 6.4 | 19.3 | 0.00 | 0.00 | 0.00 | 85 | 1005.9 |
| 20260506014520 | 26 | 147 | 6.4 | 19.3 | 0.00 | 0.00 | 0.00 | 85 | 1005.8 |
| 20260506014420 | 26 | 147 | 6.4 | 19.3 | 0.00 | 0.00 | 0.00 | 85 | 1005.8 |
| 20260506014321 | 26 | 171 | 4.8 | 19.3 | 0.00 | 0.00 | 0.00 | 85 | 1005.8 |
| 20260506014219 | 26 | 154 | 6.4 | 19.3 | 0.00 | 0.00 | 0.00 | 85 | 1005.8 |
| 20260506014120 | 26 | 147 | 8.0 | 19.3 | 0.00 | 0.00 | 0.00 | 85 | 1005.8 |
| 20260506014021 | 26 | 192 | 6.4 | 19.3 | 0.00 | 0.00 | 0.00 | 85 | 1005.8 |
| 20260506013920 | 26 | 82 | 4.8 | 17.7 | 0.00 | 0.00 | 0.00 | 85 | 1005.8 |
| 20260506013820 | 26 | 192 | 4.8 | 17.7 | 0.00 | 0.00 | 0.00 | 85 | 1005.7 |
| 20260506013719 | 26 | 155 | 6.4 | 17.7 | 0.00 | 0.00 | 0.00 | 85 | 1005.7 |
| 20260506013619 | 26 | 285 | 4.8 | 17.7 | 0.00 | 0.00 | 0.00 | 85 | 1005.7 |
| 20260506013519 | 26 | 166 | 4.8 | 17.7 | 0.00 | 0.00 | 0.00 | 85 | 1005.7 |
| 20260506013419 | 26 | 141 | 8.0 | 17.7 | 0.00 | 0.00 | 0.00 | 85 | 1005.7 |
| 20260506013320 | 26 | 185 | 9.7 | 17.7 | 0.00 | 0.00 | 0.00 | 85 | 1005.7 |
| 20260506013219 | 26 | 152 | 8.0 | 17.7 | 0.00 | 0.00 | 0.00 | 85 | 1005.7 |
| 20260506013120 | 26 | 154 | 8.0 | 17.7 | 0.00 | 0.00 | 0.00 | 85 | 1005.6 |
| 20260506013020 | 26 | 202 | 8.0 | 17.7 | 0.00 | 0.00 | 0.00 | 85 | 1005.5 |
| 20260506012920 | 26 | 207 | 9.7 | 17.7 | 0.00 | 0.00 | 0.00 | 84 | 1005.5 |
| 20260506012819 | 26 | 159 | 6.4 | 17.7 | 0.00 | 0.00 | 0.00 | 84 | 1005.6 |
| 20260506012720 | 26 | 196 | 4.8 | 17.7 | 0.00 | 0.00 | 0.00 | 84 | 1005.5 |
| 20260506012620 | 26 | 128 | 6.4 | 17.7 | 0.00 | 0.00 | 0.00 | 84 | 1005.5 |
| 20260506012519 | 26 | 131 | 8.0 | 17.7 | 0.00 | 0.00 | 0.00 | 84 | 1005.5 |
| 20260506012420 | 26 | 113 | 9.7 | 17.7 | 0.00 | 0.00 | 0.00 | 84 | 1005.5 |
| 20260506012319 | 26 | 38 | 9.7 | 19.3 | 0.00 | 0.00 | 0.00 | 84 | 1005.5 |
| 20260506012220 | 26 | 176 | 6.4 | 19.3 | 0.00 | 0.00 | 0.00 | 84 | 1005.6 |
| 20260506012119 | 26 | 169 | 6.4 | 19.3 | 0.00 | 0.00 | 0.00 | 84 | 1005.5 |
| 20260506012019 | 26 | 140 | 6.4 | 19.3 | 0.00 | 0.00 | 0.00 | 84 | 1005.5 |
| 20260506011919 | 26 | 138 | 9.7 | 19.3 | 0.00 | 0.00 | 0.00 | 84 | 1005.5 |
| 20260506011820 | 26 | 178 | 9.7 | 19.3 | 0.00 | 0.00 | 0.00 | 84 | 1005.5 |
| 20260506011718 | 26 | 148 | 8.0 | 19.3 | 0.00 | 0.00 | 0.00 | 84 | 1005.4 |
| 20260506011620 | 26 | 90 | 8.0 | 19.3 | 0.00 | 0.00 | 0.00 | 84 | 1005.4 |
| 20260506011519 | 26 | 152 | 9.7 | 19.3 | 0.00 | 0.00 | 0.00 | 84 | 1005.3 |
| 20260506011419 | 26 | 169 | 9.7 | 19.3 | 0.00 | 0.00 | 0.00 | 84 | 1005.3 |
| 20260506011320 | 26 | 185 | 9.7 | 17.7 | 0.00 | 0.00 | 0.00 | 84 | 1005.3 |
| 20260506011221 | 26 | 159 | 9.7 | 17.7 | 0.00 | 0.00 | 0.00 | 84 | 1005.3 |
| 20260506011119 | 26 | 166 | 9.7 | 17.7 | 0.00 | 0.00 | 0.00 | 83 | 1005.4 |
| 20260506011020 | 26 | 109 | 9.7 | 19.3 | 0.00 | 0.00 | 0.00 | 83 | 1005.3 |
| 20260506010919 | 26 | 180 | 4.8 | 19.3 | 0.00 | 0.00 | 0.00 | 83 | 1005.3 |
| 20260506010818 | 26 | 171 | 6.4 | 19.3 | 0.00 | 0.00 | 0.00 | 83 | 1005.3 |
| 20260506010719 | 26 | 173 | 8.0 | 19.3 | 0.00 | 0.00 | 0.00 | 83 | 1005.3 |
| 20260506010619 | 26 | 206 | 6.4 | 19.3 | 0.00 | 0.00 | 0.00 | 83 | 1005.3 |
| 20260506010520 | 26 | 189 | 6.4 | 19.3 | 0.00 | 0.00 | 0.00 | 83 | 1005.3 |
| 20260506010419 | 26 | 138 | 6.4 | 19.3 | 0.00 | 0.00 | 0.00 | 83 | 1005.3 |
| 20260506010319 | 26 | 120 | 8.0 | 19.3 | 0.00 | 0.00 | 0.00 | 83 | 1005.3 |
| 20260506010220 | 26 | 144 | 6.4 | 19.3 | 0.00 | 0.00 | 0.00 | 83 | 1005.2 |
| 20260506010119 | 26 | 192 | 6.4 | 19.3 | 0.00 | 0.00 | 0.00 | 83 | 1005.3 |
| 20260506010021 | 26 | 159 | 8.0 | 20.9 | 0.00 | 0.00 | 0.00 | 83 | 1005.3 |
| 20260506005919 | 26 | 155 | 8.0 | 20.9 | 0.00 | 0.00 | 0.00 | 83 | 1005.2 |
| 20260506005820 | 26 | 212 | 6.4 | 20.9 | 0.00 | 0.00 | 0.00 | 83 | 1005.2 |
| 20260506005718 | 26 | 0 | 3.2 | 20.9 | 0.00 | 0.00 | 0.00 | 83 | 1005.2 |
| 20260506005619 | 26 | 137 | 4.8 | 20.9 | 0.00 | 0.00 | 0.00 | 83 | 1005.2 |
| 20260506005519 | 26 | 107 | 8.0 | 20.9 | 0.00 | 0.00 | 0.00 | 83 | 1005.2 |
| 20260506005418 | 26 | 106 | 11.3 | 20.9 | 0.00 | 0.00 | 0.00 | 83 | 1005.2 |
| 20260506005318 | 26 | 113 | 11.3 | 20.9 | 0.00 | 0.00 | 0.00 | 82 | 1005.2 |
| 20260506005219 | 26 | 96 | 11.3 | 20.9 | 0.00 | 0.00 | 0.00 | 82 | 1005.1 |
| 20260506005119 | 26 | 87 | 11.3 | 20.9 | 0.00 | 0.00 | 0.00 | 82 | 1005.2 |
| 20260506005018 | 26 | 106 | 6.4 | 19.3 | 0.00 | 0.00 | 0.00 | 82 | 1005.2 |
| 20260506004918 | 26 | 130 | 6.4 | 19.3 | 0.00 | 0.00 | 0.00 | 82 | 1005.2 |
| 20260506004820 | 26 | 106 | 8.0 | 19.3 | 0.00 | 0.00 | 0.00 | 82 | 1005.1 |
| 20260506004719 | 26 | 142 | 8.0 | 19.3 | 0.00 | 0.00 | 0.00 | 82 | 1005.1 |
| 20260506004618 | 26 | 86 | 8.0 | 19.3 | 0.00 | 0.00 | 0.00 | 82 | 1005.1 |
| 20260506004519 | 26 | 35 | 6.4 | 19.3 | 0.00 | 0.00 | 0.00 | 82 | 1005.2 |
| 20260506004419 | 26 | 71 | 8.0 | 24.1 | 0.00 | 0.00 | 0.00 | 82 | 1005.2 |
| 20260506004318 | 26 | 111 | 6.4 | 24.1 | 0.00 | 0.00 | 0.00 | 82 | 1005.2 |
| 20260506004218 | 26 | 169 | 6.4 | 24.1 | 0.00 | 0.00 | 0.00 | 82 | 1005.2 |
| 20260506004119 | 26 | 94 | 9.7 | 24.1 | 0.00 | 0.00 | 0.00 | 82 | 1005.2 |
| 20260506004018 | 26 | 125 | 8.0 | 24.1 | 0.00 | 0.00 | 0.00 | 82 | 1005.2 |
| 20260506003918 | 26 | 134 | 9.7 | 24.1 | 0.00 | 0.00 | 0.00 | 82 | 1005.2 |
| 20260506003819 | 26 | 130 | 9.7 | 24.1 | 0.00 | 0.00 | 0.00 | 82 | 1005.2 |
| 20260506003719 | 26 | 142 | 9.7 | 24.1 | 0.00 | 0.00 | 0.00 | 82 | 1005.2 |
| 20260506003618 | 26 | 121 | 11.3 | 24.1 | 0.00 | 0.00 | 0.00 | 82 | 1005.2 |
| 20260506003518 | 26 | 102 | 11.3 | 24.1 | 0.00 | 0.00 | 0.00 | 82 | 1005.1 |
| 20260506003419 | 26 | 96 | 8.0 | 17.7 | 0.00 | 0.00 | 0.00 | 82 | 1005.2 |
| 20260506003318 | 26 | 131 | 6.4 | 17.7 | 0.00 | 0.00 | 0.00 | 82 | 1005.2 |
| 20260506003217 | 26 | 90 | 6.4 | 17.7 | 0.00 | 0.00 | 0.00 | 82 | 1005.1 |
| 20260506003118 | 26 | 90 | 8.0 | 17.7 | 0.00 | 0.00 | 0.00 | 82 | 1005.2 |
| 20260506003017 | 26 | 120 | 8.0 | 17.7 | 0.00 | 0.00 | 0.00 | 82 | 1005.1 |
| 20260506002917 | 26 | 90 | 8.0 | 19.3 | 0.00 | 0.00 | 0.00 | 81 | 1005.0 |
| 20260506002818 | 27 | 100 | 11.3 | 19.3 | 0.00 | 0.00 | 0.00 | 81 | 1005.0 |
| 20260506002720 | 27 | 103 | 9.7 | 19.3 | 0.00 | 0.00 | 0.00 | 81 | 1005.0 |
| 20260506002617 | 27 | 82 | 6.4 | 19.3 | 0.00 | 0.00 | 0.00 | 81 | 1005.0 |
| 20260506002517 | 27 | 100 | 4.8 | 19.3 | 0.00 | 0.00 | 0.00 | 81 | 1005.0 |
| 20260506002419 | 27 | 111 | 8.0 | 19.3 | 0.00 | 0.00 | 0.00 | 81 | 1004.9 |
| 20260506002318 | 27 | 78 | 8.0 | 19.3 | 0.00 | 0.00 | 0.00 | 81 | 1004.9 |
| 20260506002218 | 27 | 93 | 8.0 | 19.3 | 0.00 | 0.00 | 0.00 | 81 | 1004.9 |
| 20260506002118 | 27 | 79 | 8.0 | 19.3 | 0.00 | 0.00 | 0.00 | 81 | 1004.9 |
| 20260506002019 | 27 | 158 | 8.0 | 19.3 | 0.00 | 0.00 | 0.00 | 81 | 1004.9 |
| 20260506001918 | 27 | 117 | 9.7 | 19.3 | 0.00 | 0.00 | 0.00 | 81 | 1004.9 |
| 20260506001818 | 27 | 69 | 9.7 | 19.3 | 0.00 | 0.00 | 0.00 | 81 | 1004.9 |
| 20260506001719 | 27 | 116 | 6.4 | 32.2 | 0.00 | 0.00 | 0.00 | 81 | 1004.8 |
| 20260506001618 | 27 | 127 | 4.8 | 32.2 | 0.00 | 0.00 | 0.00 | 81 | 1004.8 |
| 20260506001518 | 27 | 0 | 6.4 | 32.2 | 0.00 | 0.00 | 0.00 | 81 | 1004.9 |
| 20260506001417 | 27 | 106 | 8.0 | 32.2 | 0.00 | 0.00 | 0.00 | 80 | 1004.9 |
| 20260506001319 | 27 | 104 | 11.3 | 32.2 | 0.00 | 0.00 | 0.00 | 80 | 1004.9 |
| 20260506001217 | 27 | 99 | 9.7 | 32.2 | 0.00 | 0.00 | 0.00 | 80 | 1004.9 |
| 20260506001117 | 27 | 102 | 6.4 | 32.2 | 0.00 | 0.00 | 0.00 | 80 | 1004.9 |
| 20260506001018 | 27 | 97 | 8.0 | 32.2 | 0.00 | 0.00 | 0.00 | 80 | 1004.9 |
| 20260506000917 | 27 | 103 | 12.9 | 32.2 | 0.00 | 0.00 | 0.00 | 80 | 1004.9 |
| 20260506000819 | 27 | 123 | 14.5 | 32.2 | 0.00 | 0.00 | 0.00 | 80 | 1004.9 |
| 20260506000714 | 27 | 97 | 9.7 | 25.7 | 0.00 | 0.00 | 0.00 | 80 | 1005.0 |
| 20260506000609 | 27 | 127 | 6.4 | 24.1 | 0.00 | 0.00 | 0.00 | 80 | 1005.0 |
| 20260506000509 | 27 | 87 | 9.7 | 24.1 | 0.00 | 0.00 | 0.00 | 80 | 1005.0 |
| 20260506000409 | 27 | 102 | 12.9 | 24.1 | 0.00 | 0.00 | 0.00 | 80 | 1004.9 |
| 20260506000309 | 27 | 65 | 11.3 | 24.1 | 0.00 | 0.00 | 0.00 | 80 | 1005.0 |
| 20260506000206 | 27 | 99 | 11.3 | 20.9 | 0.00 | 0.00 | 0.00 | 80 | 1005.0 |
| 20260506000104 | 27 | 141 | 9.7 | 24.1 | 0.00 | 0.00 | 0.00 | 80 | 1005.0 |
| 20260506000003 | 27 | 55 | 9.7 | 24.1 | 0.00 | 0.00 | 0.00 | 80 | 1004.9 |
| 20260505235902 | 27 | 128 | 11.3 | 24.1 | 0.00 | 0.00 | 0.00 | 80 | 1004.9 |
| 20260505235802 | 27 | 102 | 8.0 | 24.1 | 0.00 | 0.00 | 0.00 | 80 | 1005.0 |
| 20260505235702 | 27 | 124 | 8.0 | 24.1 | 0.00 | 0.00 | 0.00 | 80 | 1004.9 |
| 20260505235603 | 27 | 118 | 9.7 | 24.1 | 0.00 | 0.00 | 0.00 | 80 | 1004.9 |
| 20260505235503 | 27 | 93 | 9.7 | 25.7 | 0.00 | 0.00 | 0.00 | 80 | 1004.8 |
| 20260505235403 | 27 | 109 | 9.7 | 25.7 | 0.00 | 0.00 | 0.00 | 80 | 1004.8 |
| 20260505235305 | 27 | 94 | 9.7 | 25.7 | 0.00 | 0.00 | 0.00 | 80 | 1004.9 |
| 20260505235204 | 27 | 87 | 9.7 | 25.7 | 0.00 | 0.00 | 0.00 | 80 | 1004.8 |
| 20260505235102 | 27 | 145 | 9.7 | 25.7 | 0.00 | 0.00 | 0.00 | 79 | 1004.8 |
| 20260505235003 | 27 | 71 | 9.7 | 25.7 | 0.00 | 0.00 | 0.00 | 79 | 1004.7 |
| 20260505234902 | 27 | 111 | 9.7 | 25.7 | 0.00 | 0.00 | 0.00 | 79 | 1004.8 |
| 20260505234802 | 27 | 0 | 11.3 | 25.7 | 0.00 | 0.00 | 0.00 | 79 | 1004.8 |
| 20260505234702 | 27 | 80 | 12.9 | 25.7 | 0.00 | 0.00 | 0.00 | 79 | 1004.8 |
| 20260505234604 | 27 | 116 | 12.9 | 25.7 | 0.00 | 0.00 | 0.00 | 79 | 1004.8 |
| 20260505234504 | 27 | 118 | 9.7 | 22.5 | 0.00 | 0.00 | 0.00 | 79 | 1004.8 |
| 20260505234402 | 27 | 102 | 9.7 | 20.9 | 0.00 | 0.00 | 0.00 | 79 | 1004.8 |
| 20260505234303 | 27 | 76 | 11.3 | 20.9 | 0.00 | 0.00 | 0.00 | 79 | 1004.8 |
| 20260505234203 | 27 | 78 | 12.9 | 20.9 | 0.00 | 0.00 | 0.00 | 79 | 1004.8 |
| 20260505234104 | 27 | 110 | 9.7 | 20.9 | 0.00 | 0.00 | 0.00 | 79 | 1004.9 |
| 20260505234002 | 27 | 120 | 6.4 | 20.9 | 0.00 | 0.00 | 0.00 | 80 | 1004.9 |
| 20260505233903 | 27 | 86 | 6.4 | 20.9 | 0.00 | 0.00 | 0.00 | 80 | 1004.9 |
| 20260505233802 | 27 | 0 | 9.7 | 22.5 | 0.00 | 0.00 | 0.00 | 80 | 1004.9 |
| 20260505233702 | 27 | 113 | 11.3 | 22.5 | 0.00 | 0.00 | 0.00 | 79 | 1004.9 |
| 20260505233604 | 27 | 111 | 11.3 | 22.5 | 0.00 | 0.00 | 0.00 | 79 | 1005.0 |
| 20260505233504 | 27 | 90 | 14.5 | 22.5 | 0.00 | 0.00 | 0.00 | 79 | 1004.9 |
| 20260505233402 | 27 | 137 | 12.9 | 22.5 | 0.00 | 0.00 | 0.00 | 79 | 1004.9 |
| 20260505233302 | 27 | 96 | 9.7 | 22.5 | 0.00 | 0.00 | 0.00 | 80 | 1004.9 |
| 20260505233204 | 27 | 114 | 9.7 | 22.5 | 0.00 | 0.00 | 0.00 | 79 | 1004.9 |
| 20260505233102 | 27 | 93 | 8.0 | 22.5 | 0.00 | 0.00 | 0.00 | 80 | 1004.9 |
| 20260505233002 | 27 | 111 | 6.4 | 22.5 | 0.00 | 0.00 | 0.00 | 80 | 1004.9 |
| 20260505232903 | 27 | 80 | 8.0 | 24.1 | 0.00 | 0.00 | 0.00 | 80 | 1004.9 |
| 20260505232802 | 27 | 68 | 9.7 | 24.1 | 0.00 | 0.00 | 0.00 | 80 | 1004.9 |
| 20260505232702 | 27 | 80 | 8.0 | 30.6 | 0.00 | 0.00 | 0.00 | 80 | 1005.0 |
| 20260505232602 | 27 | 123 | 6.4 | 30.6 | 0.00 | 0.00 | 0.00 | 80 | 1004.9 |
| 20260505232504 | 27 | 93 | 8.0 | 30.6 | 0.00 | 0.00 | 0.00 | 80 | 1004.8 |
| 20260505232402 | 27 | 71 | 8.0 | 30.6 | 0.00 | 0.00 | 0.00 | 79 | 1004.9 |
| 20260505232305 | 27 | 109 | 6.4 | 30.6 | 0.00 | 0.00 | 0.00 | 79 | 1004.9 |
| 20260505232203 | 27 | 93 | 8.0 | 30.6 | 0.00 | 0.00 | 0.00 | 79 | 1004.9 |
| 20260505232102 | 27 | 117 | 11.3 | 30.6 | 0.00 | 0.00 | 0.00 | 79 | 1004.9 |
| 20260505232002 | 27 | 121 | 12.9 | 30.6 | 0.00 | 0.00 | 0.00 | 79 | 1004.9 |
| 20260505231903 | 27 | 118 | 16.1 | 30.6 | 0.00 | 0.00 | 0.00 | 79 | 1004.9 |
| 20260505231802 | 27 | 120 | 14.5 | 30.6 | 0.00 | 0.00 | 0.00 | 79 | 1005.0 |
| 20260505231702 | 27 | 128 | 9.7 | 22.5 | 0.00 | 0.00 | 0.00 | 79 | 1005.0 |
| 20260505231603 | 27 | 107 | 9.7 | 22.5 | 0.00 | 0.00 | 0.00 | 79 | 1005.0 |
| 20260505231504 | 27 | 63 | 9.7 | 22.5 | 0.00 | 0.00 | 0.00 | 79 | 1005.0 |
| 20260505231402 | 27 | 87 | 9.7 | 22.5 | 0.00 | 0.00 | 0.00 | 79 | 1005.0 |
| 20260505231304 | 27 | 107 | 11.3 | 22.5 | 0.00 | 0.00 | 0.00 | 79 | 1005.0 |
| 20260505231203 | 27 | 134 | 9.7 | 20.9 | 0.00 | 0.00 | 0.00 | 79 | 1005.0 |
| 20260505231102 | 27 | 110 | 8.0 | 20.9 | 0.00 | 0.00 | 0.00 | 79 | 1004.9 |
| 20260505231002 | 27 | 85 | 6.4 | 20.9 | 0.00 | 0.00 | 0.00 | 79 | 1005.0 |
| 20260505230902 | 27 | 99 | 6.4 | 20.9 | 0.00 | 0.00 | 0.00 | 79 | 1005.0 |
| 20260505230803 | 27 | 79 | 9.7 | 20.9 | 0.00 | 0.00 | 0.00 | 79 | 1005.0 |
| 20260505230702 | 27 | 85 | 9.7 | 20.9 | 0.00 | 0.00 | 0.00 | 79 | 1005.0 |
| 20260505230602 | 27 | 138 | 8.0 | 20.9 | 0.00 | 0.00 | 0.00 | 79 | 1005.0 |
| 20260505230504 | 27 | 73 | 8.0 | 22.5 | 0.00 | 0.00 | 0.00 | 79 | 1004.9 |
| 20260505230403 | 27 | 48 | 9.7 | 22.5 | 0.00 | 0.00 | 0.00 | 79 | 1004.9 |
| 20260505230303 | 27 | 104 | 9.7 | 22.5 | 0.00 | 0.00 | 0.00 | 79 | 1004.9 |
| 20260505230203 | 27 | 124 | 9.7 | 22.5 | 0.00 | 0.00 | 0.00 | 79 | 1004.9 |
| 20260505230003 | 27 | 0 | 9.7 | 24.1 | 0.00 | 0.00 | 0.00 | 79 | 1005.0 |
| 20260505225902 | 27 | 94 | 9.7 | 24.1 | 0.00 | 0.00 | 0.00 | 79 | 1004.9 |
| 20260505225803 | 27 | 87 | 9.7 | 24.1 | 0.00 | 0.00 | 0.00 | 79 | 1004.9 |
| 20260505225703 | 27 | 80 | 12.9 | 24.1 | 0.00 | 0.00 | 0.00 | 79 | 1004.9 |
| 20260505225602 | 27 | 94 | 14.5 | 24.1 | 0.00 | 0.00 | 0.00 | 79 | 1004.9 |
| 20260505225504 | 27 | 130 | 12.9 | 24.1 | 0.00 | 0.00 | 0.00 | 79 | 1004.9 |
| 20260505225403 | 27 | 123 | 11.3 | 24.1 | 0.00 | 0.00 | 0.00 | 79 | 1004.8 |
| 20260505225305 | 27 | 120 | 12.9 | 24.1 | 0.00 | 0.00 | 0.00 | 79 | 1004.8 |
| 20260505225202 | 27 | 73 | 14.5 | 24.1 | 0.00 | 0.00 | 0.00 | 79 | 1004.8 |
| 20260505225103 | 27 | 125 | 11.3 | 24.1 | 0.00 | 0.00 | 0.00 | 79 | 1004.8 |
| 20260505225002 | 27 | 121 | 11.3 | 24.1 | 0.00 | 0.00 | 0.00 | 79 | 1004.7 |
| 20260505224902 | 28 | 73 | 14.5 | 24.1 | 0.00 | 0.00 | 0.00 | 78 | 1004.7 |
| 20260505224804 | 28 | 210 | 14.5 | 24.1 | 0.00 | 0.00 | 0.00 | 78 | 1004.7 |
| 20260505224702 | 28 | 144 | 12.9 | 22.5 | 0.00 | 0.00 | 0.00 | 78 | 1004.7 |
| 20260505224602 | 28 | 157 | 11.3 | 20.9 | 0.00 | 0.00 | 0.00 | 78 | 1004.7 |
| 20260505224504 | 28 | 147 | 9.7 | 20.9 | 0.00 | 0.00 | 0.00 | 78 | 1004.7 |
| 20260505224402 | 28 | 164 | 11.3 | 20.9 | 0.00 | 0.00 | 0.00 | 78 | 1004.8 |
| 20260505224302 | 28 | 121 | 9.7 | 20.9 | 0.00 | 0.00 | 0.00 | 77 | 1004.9 |
| 20260505224159 | 28 | 154 | 6.4 | 19.3 | 0.00 | 0.00 | 0.00 | 77 | 1004.8 |
| 20260505224058 | 28 | 138 | 6.4 | 19.3 | 0.00 | 0.00 | 0.00 | 77 | 1004.9 |
| 20260505223956 | 28 | 157 | 8.0 | 19.3 | 0.00 | 0.00 | 0.00 | 77 | 1004.9 |
| 20260505223854 | 28 | 142 | 9.7 | 19.3 | 0.00 | 0.00 | 0.00 | 77 | 1004.9 |
| 20260505223753 | 28 | 109 | 8.0 | 19.3 | 0.00 | 0.00 | 0.00 | 77 | 1004.9 |
| 20260505223652 | 28 | 133 | 4.8 | 20.9 | 0.00 | 0.00 | 0.00 | 77 | 1004.9 |
| 20260505223550 | 28 | 180 | 8.0 | 20.9 | 0.00 | 0.00 | 0.00 | 77 | 1004.8 |
| 20260505223448 | 28 | 214 | 8.0 | 20.9 | 0.00 | 0.00 | 0.00 | 77 | 1004.9 |
| 20260505223348 | 28 | 164 | 9.7 | 20.9 | 0.00 | 0.00 | 0.00 | 77 | 1004.9 |
| 20260505223246 | 28 | 141 | 12.9 | 20.9 | 0.00 | 0.00 | 0.00 | 77 | 1004.8 |
| 20260505223145 | 28 | 196 | 12.9 | 20.9 | 0.00 | 0.00 | 0.00 | 77 | 1004.9 |
| 20260505223044 | 28 | 188 | 9.7 | 24.1 | 0.00 | 0.00 | 0.00 | 77 | 1005.0 |
| 20260505222942 | 28 | 193 | 9.7 | 24.1 | 0.00 | 0.00 | 0.00 | 78 | 1004.9 |
| 20260505222839 | 28 | 168 | 11.3 | 24.1 | 0.00 | 0.00 | 0.00 | 77 | 1004.9 |
| 20260505222739 | 28 | 164 | 9.7 | 24.1 | 0.00 | 0.00 | 0.00 | 78 | 1004.9 |
| 20260505222638 | 28 | 192 | 11.3 | 24.1 | 0.00 | 0.00 | 0.00 | 77 | 1004.9 |
| 20260505222536 | 28 | 158 | 11.3 | 24.1 | 0.00 | 0.00 | 0.00 | 77 | 1004.9 |
| 20260505222430 | 28 | 190 | 9.7 | 24.1 | 0.00 | 0.00 | 0.00 | 77 | 1004.9 |
| 20260505222330 | 28 | 25 | 9.7 | 24.1 | 0.00 | 0.00 | 0.00 | 77 | 1005.0 |
| 20260505222231 | 28 | 140 | 11.3 | 25.7 | 0.00 | 0.00 | 0.00 | 77 | 1005.0 |
| 20260505222131 | 28 | 214 | 11.3 | 25.7 | 0.00 | 0.00 | 0.00 | 77 | 1005.0 |
| 20260505222031 | 28 | 244 | 8.0 | 25.7 | 0.00 | 0.00 | 0.00 | 77 | 1005.0 |
| 20260505221932 | 28 | 231 | 8.0 | 25.7 | 0.00 | 0.00 | 0.00 | 77 | 1004.9 |
| 20260505221831 | 28 | 207 | 9.7 | 25.7 | 0.00 | 0.00 | 0.00 | 77 | 1005.0 |
| 20260505221731 | 28 | 185 | 11.3 | 25.7 | 0.00 | 0.00 | 0.00 | 76 | 1005.0 |
| 20260505221632 | 28 | 106 | 11.3 | 25.7 | 0.00 | 0.00 | 0.00 | 76 | 1004.9 |
| 20260505221531 | 28 | 189 | 9.7 | 25.7 | 0.00 | 0.00 | 0.00 | 76 | 1004.9 |
| 20260505221431 | 28 | 183 | 11.3 | 25.7 | 0.00 | 0.00 | 0.00 | 76 | 1005.0 |
| 20260505221332 | 28 | 165 | 14.5 | 25.7 | 0.00 | 0.00 | 0.00 | 76 | 1005.0 |
| 20260505221232 | 28 | 196 | 12.9 | 25.7 | 0.00 | 0.00 | 0.00 | 76 | 1005.0 |
| 20260505221130 | 28 | 161 | 14.5 | 25.7 | 0.00 | 0.00 | 0.00 | 76 | 1005.0 |
| 20260505221028 | 28 | 172 | 14.5 | 25.7 | 0.00 | 0.00 | 0.00 | 77 | 1005.0 |
| 20260505220927 | 28 | 182 | 9.7 | 24.1 | 0.00 | 0.00 | 0.00 | 77 | 1005.1 |
| 20260505220825 | 28 | 200 | 9.7 | 27.4 | 0.00 | 0.00 | 0.00 | 77 | 1005.0 |
| 20260505220723 | 28 | 155 | 9.7 | 27.4 | 0.00 | 0.00 | 0.00 | 77 | 1005.0 |
| 20260505220623 | 28 | 224 | 11.3 | 27.4 | 0.00 | 0.00 | 0.00 | 77 | 1005.0 |
| 20260505220520 | 28 | 109 | 12.9 | 27.4 | 0.00 | 0.00 | 0.00 | 77 | 1004.9 |
| 20260505220419 | 28 | 189 | 12.9 | 27.4 | 0.00 | 0.00 | 0.00 | 76 | 1005.0 |
| 20260505220317 | 28 | 165 | 12.9 | 27.4 | 0.00 | 0.00 | 0.00 | 76 | 1005.0 |
| 20260505220217 | 28 | 180 | 11.3 | 27.4 | 0.00 | 0.00 | 0.00 | 76 | 1005.0 |
| 20260505220116 | 28 | 157 | 14.5 | 27.4 | 0.00 | 0.00 | 0.00 | 76 | 1005.1 |
| 20260505220015 | 28 | 207 | 14.5 | 27.4 | 0.00 | 0.00 | 0.00 | 76 | 1005.1 |
| 20260505215915 | 28 | 173 | 9.7 | 27.4 | 0.00 | 0.00 | 0.00 | 77 | 1005.2 |
| 20260505215815 | 28 | 175 | 11.3 | 20.9 | 0.00 | 0.00 | 0.00 | 76 | 1005.2 |
| 20260505215715 | 28 | 190 | 11.3 | 20.9 | 0.00 | 0.00 | 0.00 | 76 | 1005.0 |
| 20260505215617 | 28 | 185 | 9.7 | 20.9 | 0.00 | 0.00 | 0.00 | 77 | 1005.1 |
| 20260505215514 | 28 | 210 | 9.7 | 20.9 | 0.00 | 0.00 | 0.00 | 77 | 1005.1 |
| 20260505215416 | 28 | 192 | 9.7 | 20.9 | 0.00 | 0.00 | 0.00 | 77 | 1005.1 |
| 20260505215315 | 28 | 141 | 11.3 | 24.1 | 0.00 | 0.00 | 0.00 | 77 | 1005.2 |
| 20260505215214 | 28 | 226 | 11.3 | 24.1 | 0.00 | 0.00 | 0.00 | 76 | 1005.1 |
| 20260505215116 | 28 | 274 | 11.3 | 29.0 | 0.00 | 0.00 | 0.00 | 77 | 1005.1 |
| 20260505215014 | 28 | 212 | 12.9 | 29.0 | 0.00 | 0.00 | 0.00 | 77 | 1005.1 |
| 20260505214915 | 28 | 202 | 9.7 | 29.0 | 0.00 | 0.00 | 0.00 | 77 | 1005.2 |
| 20260505214815 | 28 | 202 | 6.4 | 29.0 | 0.00 | 0.00 | 0.00 | 77 | 1005.2 |
| 20260505214715 | 28 | 214 | 11.3 | 29.0 | 0.00 | 0.00 | 0.00 | 77 | 1005.2 |
| 20260505214614 | 28 | 207 | 14.5 | 30.6 | 0.00 | 0.00 | 0.00 | 77 | 1005.2 |
| 20260505214514 | 28 | 203 | 14.5 | 30.6 | 0.00 | 0.00 | 0.00 | 77 | 1005.2 |
| 20260505214416 | 28 | 189 | 14.5 | 30.6 | 0.00 | 0.00 | 0.00 | 76 | 1005.2 |
| 20260505214313 | 28 | 197 | 14.5 | 30.6 | 0.00 | 0.00 | 0.00 | 77 | 1005.3 |
| 20260505214212 | 28 | 204 | 11.3 | 30.6 | 0.00 | 0.00 | 0.00 | 76 | 1005.2 |
| 20260505214112 | 28 | 204 | 11.3 | 30.6 | 0.00 | 0.00 | 0.00 | 77 | 1005.3 |
| 20260505214005 | 28 | 180 | 11.3 | 30.6 | 0.00 | 0.00 | 0.00 | 76 | 1005.3 |
| 20260505213903 | 28 | 235 | 14.5 | 30.6 | 0.00 | 0.00 | 0.00 | 76 | 1005.3 |
| 20260505213802 | 28 | 240 | 17.7 | 30.6 | 0.00 | 0.00 | 0.00 | 76 | 1005.3 |
| 20260505213701 | 29 | 202 | 16.1 | 27.4 | 0.00 | 0.00 | 0.00 | 76 | 1005.3 |
| 20260505213603 | 29 | 161 | 9.7 | 24.1 | 0.00 | 0.00 | 0.00 | 75 | 1005.4 |
| 20260505213502 | 29 | 206 | 8.0 | 22.5 | 0.00 | 0.00 | 0.00 | 75 | 1005.3 |
| 20260505213402 | 29 | 173 | 9.7 | 22.5 | 0.00 | 0.00 | 0.00 | 75 | 1005.3 |
| 20260505213305 | 29 | 237 | 9.7 | 22.5 | 0.00 | 0.00 | 0.00 | 75 | 1005.3 |
| 20260505213203 | 29 | 245 | 9.7 | 27.4 | 0.00 | 0.00 | 0.00 | 75 | 1005.3 |
| 20260505213102 | 29 | 224 | 8.0 | 27.4 | 0.00 | 0.00 | 0.00 | 75 | 1005.3 |
| 20260505213002 | 29 | 179 | 6.4 | 27.4 | 0.00 | 0.00 | 0.00 | 75 | 1005.2 |
| 20260505212904 | 29 | 175 | 8.0 | 27.4 | 0.00 | 0.00 | 0.00 | 76 | 1005.3 |
| 20260505212802 | 29 | 196 | 9.7 | 27.4 | 0.00 | 0.00 | 0.00 | 75 | 1005.3 |
| 20260505212703 | 29 | 203 | 11.3 | 27.4 | 0.00 | 0.00 | 0.00 | 76 | 1005.3 |
| 20260505212603 | 28 | 203 | 9.7 | 27.4 | 0.00 | 0.00 | 0.00 | 75 | 1005.3 |
| 20260505212502 | 28 | 221 | 11.3 | 27.4 | 0.00 | 0.00 | 0.00 | 75 | 1005.4 |
| 20260505212402 | 28 | 178 | 16.1 | 27.4 | 0.00 | 0.00 | 0.00 | 75 | 1005.4 |
| 20260505212306 | 28 | 200 | 14.5 | 27.4 | 0.00 | 0.00 | 0.00 | 76 | 1005.4 |
| 20260505212202 | 28 | 176 | 14.5 | 25.7 | 0.00 | 0.00 | 0.00 | 76 | 1005.5 |
| 20260505212102 | 28 | 197 | 16.1 | 25.7 | 0.00 | 0.00 | 0.00 | 76 | 1005.5 |
| 20260505212002 | 28 | 195 | 14.5 | 25.7 | 0.00 | 0.00 | 0.00 | 76 | 1005.5 |
| 20260505211905 | 28 | 144 | 14.5 | 25.7 | 0.00 | 0.00 | 0.00 | 76 | 1005.6 |
| 20260505211802 | 28 | 183 | 14.5 | 25.7 | 0.00 | 0.00 | 0.00 | 76 | 1005.6 |
| 20260505211701 | 28 | 217 | 14.5 | 25.7 | 0.00 | 0.00 | 0.00 | 76 | 1005.5 |
| 20260505211604 | 28 | 213 | 16.1 | 25.7 | 0.00 | 0.00 | 0.00 | 76 | 1005.5 |
| 20260505211503 | 28 | 200 | 14.5 | 25.7 | 0.00 | 0.00 | 0.00 | 76 | 1005.5 |
| 20260505211402 | 28 | 164 | 12.9 | 25.7 | 0.00 | 0.00 | 0.00 | 76 | 1005.4 |
| 20260505211302 | 28 | 193 | 12.9 | 29.0 | 0.00 | 0.00 | 0.00 | 76 | 1005.6 |
| 20260505211203 | 28 | 166 | 12.9 | 29.0 | 0.00 | 0.00 | 0.00 | 77 | 1005.6 |
| 20260505211104 | 28 | 169 | 12.9 | 29.0 | 0.00 | 0.00 | 0.00 | 77 | 1005.6 |
| 20260505211004 | 28 | 166 | 11.3 | 29.0 | 0.00 | 0.00 | 0.00 | 77 | 1005.6 |
| 20260505210904 | 28 | 243 | 9.7 | 29.0 | 0.00 | 0.00 | 0.00 | 78 | 1005.7 |
| 20260505210803 | 28 | 149 | 14.5 | 29.0 | 0.00 | 0.00 | 0.00 | 77 | 1005.6 |
| 20260505210703 | 28 | 210 | 14.5 | 29.0 | 0.00 | 0.00 | 0.00 | 77 | 1005.6 |
| 20260505210602 | 28 | 195 | 12.9 | 30.6 | 0.00 | 0.00 | 0.00 | 77 | 1005.7 |
| 20260505210504 | 28 | 219 | 16.1 | 30.6 | 0.00 | 0.00 | 0.00 | 77 | 1005.7 |
| 20260505210403 | 28 | 235 | 14.5 | 30.6 | 0.00 | 0.00 | 0.00 | 77 | 1005.7 |
| 20260505210302 | 28 | 237 | 11.3 | 30.6 | 0.00 | 0.00 | 0.00 | 78 | 1005.7 |
| 20260505210203 | 28 | 204 | 9.7 | 30.6 | 0.00 | 0.00 | 0.00 | 78 | 1005.8 |
| 20260505210003 | 28 | 196 | 9.7 | 30.6 | 0.00 | 0.00 | 0.00 | 77 | 1005.8 |
| 20260505205839 | 28 | 131 | 14.5 | 30.6 | 0.00 | 0.00 | 0.00 | 77 | 1005.8 |
| 20260505205737 | 28 | 227 | 16.1 | 30.6 | 0.00 | 0.00 | 0.00 | 77 | 1005.8 |
| 20260505205635 | 28 | 168 | 14.5 | 30.6 | 0.00 | 0.00 | 0.00 | 77 | 1005.9 |
| 20260505205534 | 28 | 169 | 12.9 | 22.5 | 0.00 | 0.00 | 0.00 | 77 | 1005.8 |
| 20260505205431 | 28 | 196 | 9.7 | 24.1 | 0.00 | 0.00 | 0.00 | 77 | 1005.9 |
| 20260505205330 | 28 | 142 | 8.0 | 24.1 | 0.00 | 0.00 | 0.00 | 76 | 1005.8 |
| 20260505205231 | 28 | 158 | 9.7 | 24.1 | 0.00 | 0.00 | 0.00 | 76 | 1005.9 |
| 20260505205132 | 28 | 120 | 9.7 | 24.1 | 0.00 | 0.00 | 0.00 | 76 | 1005.8 |
| 20260505205031 | 28 | 172 | 9.7 | 24.1 | 0.00 | 0.00 | 0.00 | 76 | 1005.9 |
| 20260505204932 | 28 | 158 | 8.0 | 24.1 | 0.00 | 0.00 | 0.00 | 76 | 1005.9 |
| 20260505204832 | 28 | 199 | 8.0 | 24.1 | 0.00 | 0.00 | 0.00 | 76 | 1005.8 |
| 20260505204732 | 28 | 171 | 9.7 | 24.1 | 0.00 | 0.00 | 0.00 | 76 | 1005.9 |
| 20260505204630 | 28 | 204 | 12.9 | 24.1 | 0.00 | 0.00 | 0.00 | 75 | 1006.0 |
| 20260505204529 | 29 | 134 | 9.7 | 24.1 | 0.00 | 0.00 | 0.00 | 76 | 1006.0 |
| 20260505204427 | 29 | 217 | 8.0 | 24.1 | 0.00 | 0.00 | 0.00 | 75 | 1005.9 |
| 20260505204327 | 29 | 169 | 12.9 | 24.1 | 0.00 | 0.00 | 0.00 | 75 | 1005.9 |
| 20260505204224 | 29 | 220 | 17.7 | 30.6 | 0.00 | 0.00 | 0.00 | 74 | 1005.9 |
| 20260505204122 | 29 | 213 | 14.5 | 30.6 | 0.00 | 0.00 | 0.00 | 74 | 1005.9 |
| 20260505204019 | 29 | 290 | 12.9 | 30.6 | 0.00 | 0.00 | 0.00 | 74 | 1005.9 |
| 20260505203914 | 29 | 289 | 11.3 | 30.6 | 0.00 | 0.00 | 0.00 | 74 | 1005.7 |
| 20260505203814 | 29 | 213 | 11.3 | 30.6 | 0.00 | 0.00 | 0.00 | 74 | 1005.8 |
| 20260505203714 | 29 | 155 | 17.7 | 30.6 | 0.00 | 0.00 | 0.00 | 74 | 1005.8 |
| 20260505203613 | 29 | 155 | 17.7 | 30.6 | 0.00 | 0.00 | 0.00 | 74 | 1005.8 |
| 20260505203514 | 29 | 155 | 17.7 | 30.6 | 0.00 | 0.00 | 0.00 | 74 | 1005.8 |
| 20260505203413 | 29 | 179 | 19.3 | 32.2 | 0.00 | 0.00 | 0.00 | 74 | 1005.9 |
| 20260505203312 | 29 | 203 | 17.7 | 32.2 | 0.00 | 0.00 | 0.00 | 74 | 1005.9 |
| 20260505203212 | 29 | 178 | 16.1 | 32.2 | 0.00 | 0.00 | 0.00 | 74 | 1006.0 |
| 20260505203113 | 29 | 182 | 16.1 | 32.2 | 0.00 | 0.00 | 0.00 | 73 | 1006.0 |
| 20260505203013 | 29 | 190 | 14.5 | 32.2 | 0.00 | 0.00 | 0.00 | 73 | 1006.0 |
| 20260505202913 | 29 | 204 | 14.5 | 32.2 | 0.00 | 0.00 | 0.00 | 73 | 1006.0 |
| 20260505202814 | 29 | 178 | 12.9 | 32.2 | 0.00 | 0.00 | 0.00 | 74 | 1006.0 |
| 20260505202714 | 29 | 221 | 14.5 | 32.2 | 0.00 | 0.00 | 0.00 | 74 | 1006.0 |
| 20260505202614 | 29 | 217 | 17.7 | 32.2 | 0.00 | 0.00 | 0.00 | 74 | 1006.0 |
| 20260505202513 | 29 | 209 | 19.3 | 32.2 | 0.00 | 0.00 | 0.00 | 73 | 1006.1 |
| 20260505202412 | 29 | 145 | 14.5 | 27.4 | 0.00 | 0.00 | 0.00 | 73 | 1006.1 |
| 20260505202313 | 29 | 171 | 11.3 | 27.4 | 0.00 | 0.00 | 0.00 | 73 | 1006.1 |
| 20260505202212 | 29 | 182 | 12.9 | 27.4 | 0.00 | 0.00 | 0.00 | 73 | 1006.1 |
| 20260505202113 | 30 | 124 | 16.1 | 27.4 | 0.00 | 0.00 | 0.00 | 73 | 1006.1 |
| 20260505202012 | 29 | 186 | 17.7 | 27.4 | 0.00 | 0.00 | 0.00 | 73 | 1006.1 |
| 20260505201912 | 29 | 241 | 14.5 | 27.4 | 0.00 | 0.00 | 0.00 | 74 | 1006.1 |
| 20260505201812 | 29 | 204 | 11.3 | 20.9 | 0.00 | 0.00 | 0.00 | 75 | 1006.1 |
| 20260505201712 | 29 | 186 | 9.7 | 22.5 | 0.00 | 0.00 | 0.00 | 74 | 1006.2 |
| 20260505201612 | 29 | 204 | 9.7 | 22.5 | 0.00 | 0.00 | 0.00 | 75 | 1006.3 |
| 20260505201512 | 29 | 162 | 9.7 | 22.5 | 0.00 | 0.00 | 0.00 | 75 | 1006.2 |
| 20260505201413 | 29 | 217 | 12.9 | 22.5 | 0.00 | 0.00 | 0.00 | 75 | 1006.2 |
| 20260505201312 | 29 | 252 | 12.9 | 22.5 | 0.00 | 0.00 | 0.00 | 75 | 1006.3 |
| 20260505201213 | 29 | 250 | 11.3 | 22.5 | 0.00 | 0.00 | 0.00 | 75 | 1006.2 |
| 20260505201113 | 29 | 179 | 11.3 | 25.7 | 0.00 | 0.00 | 0.00 | 75 | 1006.3 |
| 20260505201012 | 29 | 193 | 12.9 | 25.7 | 0.00 | 0.00 | 0.00 | 75 | 1006.3 |
| 20260505200914 | 29 | 247 | 14.5 | 30.6 | 0.00 | 0.00 | 0.00 | 75 | 1006.3 |
| 20260505200811 | 29 | 206 | 14.5 | 30.6 | 0.00 | 0.00 | 0.00 | 75 | 1006.4 |
| 20260505200713 | 29 | 217 | 14.5 | 30.6 | 0.00 | 0.00 | 0.00 | 75 | 1006.3 |
| 20260505200612 | 29 | 200 | 16.1 | 30.6 | 0.00 | 0.00 | 0.00 | 75 | 1006.4 |
| 20260505200512 | 29 | 195 | 12.9 | 30.6 | 0.00 | 0.00 | 0.00 | 75 | 1006.4 |
| 20260505200413 | 29 | 192 | 9.7 | 30.6 | 0.00 | 0.00 | 0.00 | 75 | 1006.4 |
| 20260505200313 | 29 | 202 | 11.3 | 30.6 | 0.00 | 0.00 | 0.00 | 75 | 1006.5 |
| 20260505200212 | 29 | 193 | 14.5 | 30.6 | 0.00 | 0.00 | 0.00 | 74 | 1006.4 |
| 20260505200113 | 29 | 234 | 16.1 | 30.6 | 0.00 | 0.00 | 0.00 | 74 | 1006.5 |
| 20260505200014 | 29 | 224 | 17.7 | 30.6 | 0.00 | 0.00 | 0.00 | 74 | 1006.5 |
| 20260505195913 | 29 | 250 | 17.7 | 29.0 | 0.00 | 0.00 | 0.00 | 73 | 1006.4 |
| 20260505195811 | 29 | 206 | 16.1 | 29.0 | 0.00 | 0.00 | 0.00 | 74 | 1006.4 |
| 20260505195712 | 29 | 247 | 17.7 | 29.0 | 0.00 | 0.00 | 0.00 | 74 | 1006.4 |
| 20260505195611 | 29 | 254 | 16.1 | 25.7 | 0.00 | 0.00 | 0.00 | 75 | 1006.4 |
| 20260505195511 | 29 | 190 | 12.9 | 25.7 | 0.00 | 0.00 | 0.00 | 75 | 1006.4 |
| 20260505195411 | 29 | 203 | 14.5 | 25.7 | 0.00 | 0.00 | 0.00 | 75 | 1006.5 |
| 20260505195313 | 29 | 195 | 17.7 | 25.7 | 0.00 | 0.00 | 0.00 | 75 | 1006.5 |
| 20260505195212 | 29 | 199 | 19.3 | 25.7 | 0.00 | 0.00 | 0.00 | 74 | 1006.5 |
| 20260505195112 | 29 | 185 | 16.1 | 25.7 | 0.00 | 0.00 | 0.00 | 74 | 1006.6 |
| 20260505195012 | 29 | 213 | 14.5 | 25.7 | 0.00 | 0.00 | 0.00 | 75 | 1006.6 |
| 20260505194912 | 29 | 240 | 12.9 | 25.7 | 0.00 | 0.00 | 0.00 | 75 | 1006.6 |
| 20260505194811 | 29 | 157 | 12.9 | 27.4 | 0.00 | 0.00 | 0.00 | 75 | 1006.6 |
| 20260505194712 | 29 | 161 | 14.5 | 27.4 | 0.00 | 0.00 | 0.00 | 75 | 1006.6 |
| 20260505194612 | 29 | 175 | 17.7 | 27.4 | 0.00 | 0.00 | 0.00 | 74 | 1006.6 |
| 20260505194511 | 29 | 224 | 16.1 | 27.4 | 0.00 | 0.00 | 0.00 | 74 | 1006.6 |
| 20260505194411 | 29 | 228 | 12.9 | 27.4 | 0.00 | 0.00 | 0.00 | 75 | 1006.6 |
| 20260505194313 | 29 | 185 | 14.5 | 27.4 | 0.00 | 0.00 | 0.00 | 75 | 1006.6 |
| 20260505194212 | 29 | 216 | 12.9 | 27.4 | 0.00 | 0.00 | 0.00 | 75 | 1006.7 |
| 20260505194112 | 29 | 213 | 9.7 | 27.4 | 0.00 | 0.00 | 0.00 | 76 | 1006.6 |
| 20260505194012 | 28 | 251 | 11.3 | 27.4 | 0.00 | 0.00 | 0.00 | 76 | 1006.7 |
| 20260505193912 | 28 | 217 | 12.9 | 27.4 | 0.00 | 0.00 | 0.00 | 77 | 1006.7 |
| 20260505193811 | 28 | 183 | 16.1 | 25.7 | 0.00 | 0.00 | 0.00 | 77 | 1006.7 |
| 20260505193711 | 28 | 175 | 17.7 | 25.7 | 0.00 | 0.00 | 0.00 | 77 | 1006.7 |
| 20260505193612 | 28 | 243 | 14.5 | 24.1 | 0.00 | 0.00 | 0.00 | 77 | 1006.8 |
| 20260505193512 | 28 | 186 | 11.3 | 27.4 | 0.00 | 0.00 | 0.00 | 78 | 1006.8 |
| 20260505193411 | 28 | 200 | 14.5 | 27.4 | 0.00 | 0.00 | 0.00 | 77 | 1006.7 |
| 20260505193311 | 28 | 183 | 14.5 | 27.4 | 0.00 | 0.00 | 0.00 | 77 | 1006.8 |
| 20260505193212 | 28 | 133 | 12.9 | 27.4 | 0.00 | 0.00 | 0.00 | 78 | 1006.8 |
| 20260505193111 | 28 | 223 | 14.5 | 27.4 | 0.00 | 0.00 | 0.00 | 78 | 1006.9 |
| 20260505193012 | 28 | 216 | 12.9 | 27.4 | 0.00 | 0.00 | 0.00 | 77 | 1006.8 |
| 20260505192913 | 28 | 183 | 14.5 | 27.4 | 0.00 | 0.00 | 0.00 | 77 | 1006.8 |
| 20260505192811 | 28 | 195 | 14.5 | 27.4 | 0.00 | 0.00 | 0.00 | 77 | 1006.8 |
| 20260505192711 | 28 | 193 | 11.3 | 27.4 | 0.00 | 0.00 | 0.00 | 77 | 1006.8 |
| 20260505192611 | 28 | 148 | 11.3 | 27.4 | 0.00 | 0.00 | 0.00 | 77 | 1006.8 |
| 20260505192513 | 28 | 202 | 11.3 | 22.5 | 0.00 | 0.00 | 0.00 | 77 | 1006.8 |
| 20260505192411 | 28 | 186 | 9.7 | 22.5 | 0.00 | 0.00 | 0.00 | 77 | 1006.9 |
| 20260505192311 | 28 | 209 | 8.0 | 22.5 | 0.00 | 0.00 | 0.00 | 78 | 1006.9 |
| 20260505192211 | 28 | 214 | 8.0 | 22.5 | 0.00 | 0.00 | 0.00 | 77 | 1006.8 |
| 20260505192110 | 28 | 248 | 8.0 | 27.4 | 0.00 | 0.00 | 0.00 | 77 | 1006.9 |
| 20260505192010 | 28 | 240 | 9.7 | 27.4 | 0.00 | 0.00 | 0.00 | 77 | 1006.8 |
| 20260505191911 | 28 | 221 | 14.5 | 27.4 | 0.00 | 0.00 | 0.00 | 76 | 1006.9 |
| 20260505191812 | 28 | 223 | 14.5 | 27.4 | 0.00 | 0.00 | 0.00 | 76 | 1006.9 |
| 20260505191710 | 28 | 206 | 9.7 | 27.4 | 0.00 | 0.00 | 0.00 | 76 | 1007.0 |
| 20260505191611 | 28 | 179 | 8.0 | 27.4 | 0.00 | 0.00 | 0.00 | 77 | 1007.0 |
| 20260505191513 | 28 | 199 | 8.0 | 27.4 | 0.00 | 0.00 | 0.00 | 78 | 1007.0 |
| 20260505191410 | 28 | 158 | 12.9 | 27.4 | 0.00 | 0.00 | 0.00 | 78 | 1007.0 |
| 20260505191310 | 28 | 190 | 16.1 | 27.4 | 0.00 | 0.00 | 0.00 | 77 | 1006.9 |
| 20260505191210 | 28 | 210 | 14.5 | 27.4 | 0.00 | 0.00 | 0.00 | 77 | 1007.0 |
| 20260505191111 | 28 | 159 | 14.5 | 22.5 | 0.00 | 0.00 | 0.00 | 77 | 1006.9 |
| 20260505191010 | 28 | 241 | 16.1 | 22.5 | 0.00 | 0.00 | 0.00 | 77 | 1006.9 |
| 20260505190911 | 28 | 209 | 14.5 | 22.5 | 0.00 | 0.00 | 0.00 | 77 | 1007.0 |
| 20260505190812 | 28 | 197 | 12.9 | 22.5 | 0.00 | 0.00 | 0.00 | 77 | 1007.0 |
| 20260505190711 | 28 | 152 | 11.3 | 22.5 | 0.00 | 0.00 | 0.00 | 77 | 1007.0 |
| 20260505190610 | 28 | 196 | 9.7 | 19.3 | 0.00 | 0.00 | 0.00 | 78 | 1007.0 |
| 20260505190511 | 28 | 106 | 11.3 | 19.3 | 0.00 | 0.00 | 0.00 | 78 | 1006.9 |
| 20260505190412 | 28 | 204 | 12.9 | 20.9 | 0.00 | 0.00 | 0.00 | 78 | 1007.0 |
| 20260505190310 | 28 | 168 | 11.3 | 20.9 | 0.00 | 0.00 | 0.00 | 78 | 1007.0 |
| 20260505190211 | 28 | 171 | 11.3 | 20.9 | 0.00 | 0.00 | 0.00 | 78 | 1007.0 |
| 20260505190111 | 28 | 193 | 11.3 | 20.9 | 0.00 | 0.00 | 0.00 | 78 | 1007.0 |
| 20260505190011 | 28 | 227 | 11.3 | 20.9 | 0.00 | 0.00 | 0.00 | 78 | 1007.1 |
| 20260505185910 | 28 | 206 | 11.3 | 20.9 | 0.00 | 0.00 | 0.00 | 79 | 1007.1 |
| 20260505185812 | 27 | 176 | 12.9 | 20.9 | 0.00 | 0.00 | 0.00 | 79 | 1007.1 |
| 20260505185711 | 27 | 172 | 9.7 | 25.7 | 0.00 | 0.00 | 0.00 | 79 | 1007.1 |
| 20260505185611 | 27 | 161 | 11.3 | 25.7 | 0.00 | 0.00 | 0.00 | 79 | 1007.1 |
| 20260505185510 | 27 | 227 | 12.9 | 25.7 | 0.00 | 0.00 | 0.00 | 79 | 1007.1 |
| 20260505185411 | 27 | 171 | 12.9 | 25.7 | 0.00 | 0.00 | 0.00 | 80 | 1007.1 |
| 20260505185310 | 27 | 244 | 9.7 | 25.7 | 0.00 | 0.00 | 0.00 | 79 | 1007.1 |
| 20260505185210 | 27 | 195 | 9.7 | 25.7 | 0.00 | 0.00 | 0.00 | 79 | 1007.2 |
| 20260505185112 | 27 | 234 | 12.9 | 29.0 | 0.00 | 0.00 | 0.00 | 79 | 1007.2 |
| 20260505185010 | 27 | 212 | 12.9 | 29.0 | 0.00 | 0.00 | 0.00 | 79 | 1007.2 |
| 20260505184910 | 27 | 234 | 14.5 | 29.0 | 0.00 | 0.00 | 0.00 | 79 | 1007.2 |
| 20260505184810 | 27 | 0 | 16.1 | 29.0 | 0.00 | 0.00 | 0.00 | 79 | 1007.2 |
| 20260505184712 | 27 | 0 | 14.5 | 29.0 | 0.00 | 0.00 | 0.00 | 78 | 1007.2 |
| 20260505184610 | 27 | 0 | 14.5 | 29.0 | 0.00 | 0.00 | 0.00 | 78 | 1007.2 |
| 20260505184510 | 27 | 0 | 16.1 | 29.0 | 0.00 | 0.00 | 0.00 | 78 | 1007.2 |
| 20260505184411 | 27 | 0 | 14.5 | 29.0 | 0.00 | 0.00 | 0.00 | 78 | 1007.2 |
| 20260505184309 | 27 | 117 | 12.9 | 29.0 | 0.00 | 0.00 | 0.00 | 78 | 1007.2 |
| 20260505184209 | 27 | 0 | 9.7 | 29.0 | 0.00 | 0.00 | 0.00 | 79 | 1007.2 |
| 20260505184110 | 27 | 0 | 9.7 | 24.1 | 0.00 | 0.00 | 0.00 | 79 | 1007.2 |
| 20260505184011 | 27 | 0 | 12.9 | 24.1 | 0.00 | 0.00 | 0.00 | 78 | 1007.2 |
| 20260505183910 | 27 | 0 | 11.3 | 24.1 | 0.00 | 0.00 | 0.00 | 78 | 1007.1 |
| 20260505183811 | 27 | 0 | 9.7 | 29.0 | 0.00 | 0.00 | 0.00 | 78 | 1007.1 |
| 20260505183711 | 27 | 0 | 9.7 | 29.0 | 0.00 | 0.00 | 0.00 | 79 | 1007.1 |
| 20260505183610 | 27 | 130 | 9.7 | 29.0 | 0.00 | 0.00 | 0.00 | 79 | 1007.1 |
| 20260505183510 | 27 | 116 | 11.3 | 29.0 | 0.00 | 0.00 | 0.00 | 79 | 1007.2 |
| 20260505183411 | 27 | 0 | 9.7 | 29.0 | 0.00 | 0.00 | 0.00 | 79 | 1007.1 |
| 20260505183309 | 27 | 0 | 8.0 | 29.0 | 0.00 | 0.00 | 0.00 | 79 | 1007.1 |
| 20260505183211 | 27 | 0 | 9.7 | 29.0 | 0.00 | 0.00 | 0.00 | 79 | 1007.2 |
| 20260505183110 | 27 | 0 | 12.9 | 29.0 | 0.00 | 0.00 | 0.00 | 79 | 1007.3 |
| 20260505183011 | 27 | 0 | 17.7 | 29.0 | 0.00 | 0.00 | 0.00 | 79 | 1007.2 |
| 20260505182910 | 27 | 0 | 16.1 | 29.0 | 0.00 | 0.00 | 0.00 | 79 | 1007.2 |
| 20260505182809 | 27 | 0 | 11.3 | 20.9 | 0.00 | 0.00 | 0.00 | 80 | 1007.2 |
| 20260505182709 | 27 | 130 | 12.9 | 20.9 | 0.00 | 0.00 | 0.00 | 81 | 1007.3 |
| 20260505182610 | 27 | 0 | 9.7 | 19.3 | 0.00 | 0.00 | 0.00 | 81 | 1007.3 |
| 20260505182510 | 27 | 104 | 8.0 | 17.7 | 0.00 | 0.00 | 0.00 | 81 | 1007.3 |
| 20260505182410 | 27 | 0 | 8.0 | 17.7 | 0.00 | 0.00 | 0.00 | 81 | 1007.3 |
| 20260505182311 | 27 | 114 | 6.4 | 17.7 | 0.00 | 0.00 | 0.00 | 81 | 1007.2 |
| 20260505182210 | 27 | 0 | 8.0 | 17.7 | 0.00 | 0.00 | 0.00 | 81 | 1007.3 |
| 20260505182110 | 27 | 0 | 9.7 | 19.3 | 0.00 | 0.00 | 0.00 | 81 | 1007.3 |
| 20260505182010 | 27 | 0 | 9.7 | 24.1 | 0.00 | 0.00 | 0.00 | 81 | 1007.2 |
| 20260505181911 | 27 | 0 | 8.0 | 24.1 | 0.00 | 0.00 | 0.00 | 81 | 1007.3 |
| 20260505181810 | 27 | 0 | 6.4 | 24.1 | 0.00 | 0.00 | 0.00 | 81 | 1007.3 |
| 20260505181709 | 27 | 120 | 6.4 | 24.1 | 0.00 | 0.00 | 0.00 | 81 | 1007.3 |
| 20260505181610 | 27 | 0 | 9.7 | 24.1 | 0.00 | 0.00 | 0.00 | 81 | 1007.3 |
| 20260505181509 | 27 | 107 | 9.7 | 24.1 | 0.00 | 0.00 | 0.00 | 81 | 1007.3 |
| 20260505181409 | 27 | 0 | 11.3 | 24.1 | 0.00 | 0.00 | 0.00 | 81 | 1007.3 |
| 20260505181309 | 27 | 117 | 12.9 | 24.1 | 0.00 | 0.00 | 0.00 | 81 | 1007.3 |
| 20260505181210 | 27 | 0 | 14.5 | 24.1 | 0.00 | 0.00 | 0.00 | 81 | 1007.2 |
| 20260505181110 | 27 | 0 | 11.3 | 24.1 | 0.00 | 0.00 | 0.00 | 81 | 1007.3 |
| 20260505181010 | 27 | 111 | 11.3 | 22.5 | 0.00 | 0.00 | 0.00 | 81 | 1007.3 |
| 20260505180910 | 27 | 0 | 14.5 | 22.5 | 0.00 | 0.00 | 0.00 | 81 | 1007.3 |
| 20260505180810 | 27 | 0 | 12.9 | 22.5 | 0.00 | 0.00 | 0.00 | 81 | 1007.3 |
| 20260505180711 | 27 | 0 | 12.9 | 22.5 | 0.00 | 0.00 | 0.00 | 81 | 1007.2 |
| 20260505180611 | 27 | 113 | 9.7 | 22.5 | 0.00 | 0.00 | 0.00 | 81 | 1007.4 |
| 20260505180509 | 27 | 103 | 6.4 | 22.5 | 0.00 | 0.00 | 0.00 | 81 | 1007.4 |
| 20260505180409 | 27 | 0 | 6.4 | 22.5 | 0.00 | 0.00 | 0.00 | 81 | 1007.4 |
| 20260505180309 | 27 | 28 | 6.4 | 22.5 | 0.00 | 0.00 | 0.00 | 81 | 1007.4 |
| 20260505180210 | 27 | 103 | 9.7 | 22.5 | 0.00 | 0.00 | 0.00 | 81 | 1007.4 |
| 20260505180110 | 27 | 0 | 8.0 | 24.1 | 0.00 | 0.00 | 0.00 | 81 | 1007.3 |
| 20260505180009 | 27 | 92 | 11.3 | 25.7 | 0.00 | 0.00 | 0.00 | 81 | 1007.3 |
| 20260505175909 | 27 | 113 | 12.9 | 25.7 | 0.00 | 0.00 | 0.00 | 81 | 1007.3 |
| 20260505175811 | 27 | 0 | 12.9 | 25.7 | 0.00 | 0.00 | 0.00 | 81 | 1007.3 |
| 20260505175709 | 27 | 0 | 11.3 | 25.7 | 0.00 | 0.00 | 0.00 | 81 | 1007.4 |
| 20260505175609 | 27 | 0 | 8.0 | 25.7 | 0.00 | 0.00 | 0.00 | 81 | 1007.4 |
| 20260505175510 | 27 | 0 | 6.4 | 25.7 | 0.00 | 0.00 | 0.00 | 81 | 1007.4 |
| 20260505175409 | 27 | 103 | 9.7 | 25.7 | 0.00 | 0.00 | 0.00 | 81 | 1007.4 |
| 20260505175309 | 27 | 0 | 14.5 | 25.7 | 0.00 | 0.00 | 0.00 | 81 | 1007.4 |
| 20260505175208 | 27 | 0 | 14.5 | 25.7 | 0.00 | 0.00 | 0.00 | 80 | 1007.4 |
| 20260505175110 | 27 | 0 | 12.9 | 25.7 | 0.00 | 0.00 | 0.00 | 81 | 1007.5 |
| 20260505175010 | 27 | 0 | 14.5 | 24.1 | 0.00 | 0.00 | 0.00 | 80 | 1007.5 |
| 20260505174910 | 27 | 0 | 14.5 | 24.1 | 0.00 | 0.00 | 0.00 | 80 | 1007.4 |
| 20260505174809 | 27 | 0 | 9.7 | 20.9 | 0.00 | 0.00 | 0.00 | 81 | 1007.4 |
| 20260505174708 | 27 | 0 | 8.0 | 20.9 | 0.00 | 0.00 | 0.00 | 81 | 1007.4 |
| 20260505174609 | 27 | 106 | 8.0 | 20.9 | 0.00 | 0.00 | 0.00 | 81 | 1007.5 |
| 20260505174508 | 27 | 0 | 8.0 | 20.9 | 0.00 | 0.00 | 0.00 | 81 | 1007.5 |
| 20260505174409 | 27 | 0 | 6.4 | 20.9 | 0.00 | 0.00 | 0.00 | 81 | 1007.5 |
| 20260505174309 | 27 | 0 | 8.0 | 22.5 | 0.00 | 0.00 | 0.00 | 81 | 1007.6 |
| 20260505174209 | 26 | 0 | 11.3 | 22.5 | 0.00 | 0.00 | 0.00 | 81 | 1007.5 |
| 20260505174109 | 26 | 102 | 14.5 | 22.5 | 0.00 | 0.00 | 0.00 | 81 | 1007.5 |
| 20260505174008 | 26 | 116 | 14.5 | 22.5 | 0.00 | 0.00 | 0.00 | 81 | 1007.6 |
| 20260505173909 | 26 | 103 | 12.9 | 22.5 | 0.00 | 0.00 | 0.00 | 81 | 1007.6 |
| 20260505173811 | 26 | 96 | 11.3 | 22.5 | 0.00 | 0.00 | 0.00 | 81 | 1007.6 |
| 20260505173709 | 26 | 0 | 11.3 | 24.1 | 0.00 | 0.00 | 0.00 | 81 | 1007.6 |
| 20260505173608 | 26 | 0 | 11.3 | 24.1 | 0.00 | 0.00 | 0.00 | 81 | 1007.6 |
| 20260505173508 | 26 | 85 | 11.3 | 24.1 | 0.00 | 0.00 | 0.00 | 81 | 1007.6 |
| 20260505173410 | 26 | 0 | 11.3 | 24.1 | 0.00 | 0.00 | 0.00 | 81 | 1007.7 |
| 20260505173309 | 26 | 0 | 9.7 | 24.1 | 0.00 | 0.00 | 0.00 | 81 | 1007.7 |
| 20260505173209 | 26 | 0 | 9.7 | 24.1 | 0.00 | 0.00 | 0.00 | 81 | 1007.7 |
| 20260505173109 | 26 | 0 | 11.3 | 24.1 | 0.00 | 0.00 | 0.00 | 81 | 1007.7 |
| 20260505173009 | 26 | 0 | 9.7 | 24.1 | 0.00 | 0.00 | 0.00 | 82 | 1007.7 |
| 20260505172909 | 26 | 110 | 12.9 | 24.1 | 0.00 | 0.00 | 0.00 | 81 | 1007.7 |
| 20260505172808 | 26 | 0 | 14.5 | 24.1 | 0.00 | 0.00 | 0.00 | 81 | 1007.7 |
| 20260505172711 | 26 | 0 | 14.5 | 24.1 | 0.00 | 0.00 | 0.00 | 81 | 1007.7 |
| 20260505172610 | 26 | 97 | 11.3 | 24.1 | 0.00 | 0.00 | 0.00 | 82 | 1007.8 |
| 20260505172508 | 26 | 90 | 8.0 | 24.1 | 0.00 | 0.00 | 0.00 | 82 | 1007.7 |
| 20260505172410 | 26 | 0 | 9.7 | 24.1 | 0.00 | 0.00 | 0.00 | 82 | 1007.7 |
| 20260505172308 | 26 | 118 | 12.9 | 24.1 | 0.00 | 0.00 | 0.00 | 82 | 1007.7 |
| 20260505172208 | 26 | 113 | 11.3 | 24.1 | 0.00 | 0.00 | 0.00 | 82 | 1007.7 |
| 20260505172109 | 26 | 0 | 14.5 | 24.1 | 0.00 | 0.00 | 0.00 | 82 | 1007.7 |
| 20260505172009 | 26 | 0 | 14.5 | 24.1 | 0.00 | 0.00 | 0.00 | 83 | 1007.7 |
| 20260505171908 | 26 | 106 | 12.9 | 24.1 | 0.00 | 0.00 | 0.00 | 83 | 1007.8 |
| 20260505171808 | 26 | 0 | 11.3 | 24.1 | 0.00 | 0.00 | 0.00 | 83 | 1007.7 |
| 20260505171710 | 26 | 94 | 11.3 | 22.5 | 0.00 | 0.00 | 0.00 | 83 | 1007.8 |
| 20260505171608 | 26 | 104 | 12.9 | 19.3 | 0.00 | 0.00 | 0.00 | 84 | 1007.8 |
| 20260505171509 | 26 | 0 | 11.3 | 22.5 | 0.00 | 0.00 | 0.00 | 84 | 1007.7 |
| 20260505171408 | 26 | 0 | 8.0 | 22.5 | 0.00 | 0.00 | 0.00 | 84 | 1007.7 |
| 20260505171309 | 26 | 0 | 9.7 | 22.5 | 0.00 | 0.00 | 0.00 | 84 | 1007.8 |
| 20260505171207 | 26 | 110 | 11.3 | 22.5 | 0.00 | 0.00 | 0.00 | 84 | 1007.8 |
| 20260505171108 | 26 | 123 | 11.3 | 22.5 | 0.00 | 0.00 | 0.00 | 84 | 1007.8 |
| 20260505171010 | 26 | 102 | 11.3 | 22.5 | 0.00 | 0.00 | 0.00 | 84 | 1007.9 |
| 20260505170909 | 26 | 114 | 9.7 | 22.5 | 0.00 | 0.00 | 0.00 | 84 | 1007.9 |
| 20260505170808 | 26 | 86 | 11.3 | 22.5 | 0.00 | 0.00 | 0.00 | 84 | 1007.9 |
| 20260505170710 | 26 | 109 | 12.9 | 22.5 | 0.00 | 0.00 | 0.00 | 84 | 1007.8 |
| 20260505170611 | 26 | 117 | 14.5 | 22.5 | 0.00 | 0.00 | 0.00 | 84 | 1007.8 |
| 20260505170508 | 26 | 106 | 11.3 | 22.5 | 0.00 | 0.00 | 0.00 | 84 | 1007.9 |
| 20260505170408 | 26 | 110 | 8.0 | 17.7 | 0.00 | 0.00 | 0.00 | 83 | 1007.9 |
| 20260505170310 | 26 | 97 | 8.0 | 17.7 | 0.00 | 0.00 | 0.00 | 83 | 1007.9 |
| 20260505170208 | 26 | 107 | 9.7 | 17.7 | 0.00 | 0.00 | 0.00 | 83 | 1007.8 |
| 20260505170108 | 26 | 99 | 9.7 | 17.7 | 0.00 | 0.00 | 0.00 | 82 | 1007.8 |
| 20260505170008 | 26 | 0 | 8.0 | 24.1 | 0.00 | 0.00 | 0.00 | 82 | 1007.8 |
| 20260505165909 | 26 | 109 | 8.0 | 24.1 | 0.00 | 0.00 | 0.00 | 82 | 1007.8 |
| 20260505165808 | 26 | 100 | 8.0 | 24.1 | 0.00 | 0.00 | 0.00 | 82 | 1007.8 |
| 20260505165708 | 26 | 0 | 6.4 | 24.1 | 0.00 | 0.00 | 0.00 | 82 | 1007.8 |
| 20260505165608 | 26 | 104 | 9.7 | 24.1 | 0.00 | 0.00 | 0.00 | 82 | 1007.9 |
| 20260505165507 | 26 | 114 | 11.3 | 24.1 | 0.00 | 0.00 | 0.00 | 82 | 1007.8 |
| 20260505165407 | 26 | 100 | 11.3 | 24.1 | 0.00 | 0.00 | 0.00 | 82 | 1007.8 |
| 20260505165309 | 26 | 0 | 11.3 | 24.1 | 0.00 | 0.00 | 0.00 | 82 | 1007.8 |
| 20260505165208 | 26 | 113 | 14.5 | 24.1 | 0.00 | 0.00 | 0.00 | 82 | 1007.9 |
| 20260505165108 | 26 | 0 | 17.7 | 24.1 | 0.00 | 0.00 | 0.00 | 82 | 1007.9 |
| 20260505165008 | 26 | 104 | 16.1 | 22.5 | 0.00 | 0.00 | 0.00 | 82 | 1007.8 |
| 20260505164909 | 26 | 107 | 12.9 | 25.7 | 0.00 | 0.00 | 0.00 | 82 | 1007.9 |
| 20260505164808 | 26 | 120 | 11.3 | 25.7 | 0.00 | 0.00 | 0.00 | 82 | 1007.9 |
| 20260505164707 | 26 | 107 | 12.9 | 25.7 | 0.00 | 0.00 | 0.00 | 81 | 1007.9 |
| 20260505164610 | 26 | 128 | 11.3 | 25.7 | 0.00 | 0.00 | 0.00 | 82 | 1007.8 |
| 20260505164509 | 26 | 89 | 11.3 | 25.7 | 0.00 | 0.00 | 0.00 | 82 | 1007.8 |
| 20260505164408 | 26 | 0 | 12.9 | 25.7 | 0.00 | 0.00 | 0.00 | 82 | 1007.8 |
| 20260505164307 | 26 | 104 | 9.7 | 25.7 | 0.00 | 0.00 | 0.00 | 82 | 1007.8 |
| 20260505164209 | 26 | 94 | 9.7 | 25.7 | 0.00 | 0.00 | 0.00 | 82 | 1007.9 |
| 20260505164107 | 26 | 0 | 12.9 | 27.4 | 0.00 | 0.00 | 0.00 | 82 | 1007.8 |
| 20260505164007 | 26 | 116 | 12.9 | 27.4 | 0.00 | 0.00 | 0.00 | 82 | 1007.8 |
| 20260505163910 | 26 | 104 | 11.3 | 27.4 | 0.00 | 0.00 | 0.00 | 82 | 1007.8 |
| 20260505163808 | 26 | 79 | 8.0 | 27.4 | 0.00 | 0.00 | 0.00 | 82 | 1007.8 |
| 20260505163707 | 26 | 86 | 9.7 | 27.4 | 0.00 | 0.00 | 0.00 | 82 | 1007.8 |
| 20260505163609 | 26 | 0 | 11.3 | 27.4 | 0.00 | 0.00 | 0.00 | 82 | 1007.8 |
| 20260505163508 | 26 | 102 | 12.9 | 27.4 | 0.00 | 0.00 | 0.00 | 82 | 1007.8 |
| 20260505163407 | 26 | 94 | 14.5 | 27.4 | 0.00 | 0.00 | 0.00 | 82 | 1007.8 |
| 20260505163307 | 26 | 109 | 14.5 | 27.4 | 0.00 | 0.00 | 0.00 | 82 | 1007.8 |
| 20260505163208 | 26 | 102 | 12.9 | 27.4 | 0.00 | 0.00 | 0.00 | 82 | 1007.8 |
| 20260505163107 | 26 | 0 | 9.7 | 20.9 | 0.00 | 0.00 | 0.00 | 82 | 1007.8 |
| 20260505163009 | 26 | 116 | 11.3 | 20.9 | 0.00 | 0.00 | 0.00 | 82 | 1007.8 |
| 20260505162908 | 26 | 100 | 12.9 | 20.9 | 0.00 | 0.00 | 0.00 | 82 | 1007.8 |
| 20260505162808 | 26 | 82 | 11.3 | 20.9 | 0.00 | 0.00 | 0.00 | 82 | 1007.8 |
| 20260505162707 | 26 | 104 | 9.7 | 20.9 | 0.00 | 0.00 | 0.00 | 82 | 1007.7 |
| 20260505162607 | 26 | 104 | 9.7 | 20.9 | 0.00 | 0.00 | 0.00 | 82 | 1007.7 |
| 20260505162508 | 26 | 107 | 9.7 | 20.9 | 0.00 | 0.00 | 0.00 | 82 | 1007.7 |
| 20260505162407 | 26 | 99 | 11.3 | 20.9 | 0.00 | 0.00 | 0.00 | 83 | 1007.7 |
| 20260505162307 | 26 | 130 | 12.9 | 20.9 | 0.00 | 0.00 | 0.00 | 82 | 1007.8 |
| 20260505162208 | 26 | 107 | 11.3 | 20.9 | 0.00 | 0.00 | 0.00 | 82 | 1007.7 |
| 20260505162107 | 26 | 116 | 9.7 | 20.9 | 0.00 | 0.00 | 0.00 | 82 | 1007.8 |
| 20260505162006 | 26 | 103 | 8.0 | 20.9 | 0.00 | 0.00 | 0.00 | 83 | 1007.9 |
| 20260505161907 | 26 | 124 | 9.7 | 20.9 | 0.00 | 0.00 | 0.00 | 83 | 1007.8 |
| 20260505161809 | 26 | 117 | 11.3 | 20.9 | 0.00 | 0.00 | 0.00 | 83 | 1007.7 |
| 20260505161708 | 26 | 104 | 11.3 | 20.9 | 0.00 | 0.00 | 0.00 | 83 | 1007.8 |
| 20260505161606 | 26 | 106 | 8.0 | 16.1 | 0.00 | 0.00 | 0.00 | 83 | 1007.7 |
| 20260505161507 | 26 | 8 | 6.4 | 16.1 | 0.00 | 0.00 | 0.00 | 83 | 1007.7 |
| 20260505161407 | 26 | 100 | 4.8 | 16.1 | 0.00 | 0.00 | 0.00 | 83 | 1007.7 |
| 20260505161307 | 26 | 135 | 4.8 | 16.1 | 0.00 | 0.00 | 0.00 | 83 | 1007.7 |
| 20260505161207 | 26 | 93 | 6.4 | 16.1 | 0.00 | 0.00 | 0.00 | 83 | 1007.7 |
| 20260505161107 | 26 | 107 | 9.7 | 16.1 | 0.00 | 0.00 | 0.00 | 83 | 1007.7 |
| 20260505161007 | 26 | 111 | 9.7 | 16.1 | 0.00 | 0.00 | 0.00 | 84 | 1007.7 |
| 20260505160906 | 26 | 97 | 6.4 | 17.7 | 0.00 | 0.00 | 0.00 | 84 | 1007.7 |
| 20260505160806 | 26 | 110 | 6.4 | 17.7 | 0.00 | 0.00 | 0.00 | 84 | 1007.7 |
| 20260505160707 | 26 | 94 | 9.7 | 17.7 | 0.00 | 0.00 | 0.00 | 83 | 1007.7 |
| 20260505160607 | 26 | 96 | 9.7 | 17.7 | 0.00 | 0.00 | 0.00 | 84 | 1007.7 |
| 20260505160507 | 26 | 113 | 6.4 | 17.7 | 0.00 | 0.00 | 0.00 | 84 | 1007.8 |
| 20260505160407 | 26 | 86 | 6.4 | 17.7 | 0.00 | 0.00 | 0.00 | 84 | 1007.8 |
| 20260505160307 | 26 | 86 | 9.7 | 17.7 | 0.00 | 0.00 | 0.00 | 83 | 1007.8 |
| 20260505160206 | 26 | 92 | 9.7 | 17.7 | 0.00 | 0.00 | 0.00 | 83 | 1007.7 |
| 20260505160107 | 26 | 103 | 9.7 | 17.7 | 0.00 | 0.00 | 0.00 | 83 | 1007.7 |
| 20260505153303 | 25 | 155 | 12.9 | 19.3 | 0.00 | 0.00 | 0.00 | 83 | 1007.5 |
| 20260505153202 | 25 | 125 | 12.9 | 19.3 | 0.00 | 0.00 | 0.00 | 83 | 1007.6 |
| 20260505153103 | 25 | 125 | 9.7 | 19.3 | 0.00 | 0.00 | 0.00 | 83 | 1007.6 |
| 20260505153004 | 25 | 130 | 9.7 | 19.3 | 0.00 | 0.00 | 0.00 | 83 | 1007.6 |
| 20260505152903 | 25 | 87 | 9.7 | 19.3 | 0.00 | 0.00 | 0.00 | 83 | 1007.6 |
| 20260505152802 | 25 | 104 | 9.7 | 19.3 | 0.00 | 0.00 | 0.00 | 83 | 1007.6 |
| 20260505152703 | 25 | 107 | 9.7 | 19.3 | 0.00 | 0.00 | 0.00 | 83 | 1007.6 |
| 20260505152603 | 25 | 109 | 8.0 | 19.3 | 0.00 | 0.00 | 0.00 | 83 | 1007.6 |
| 20260505152503 | 25 | 110 | 9.7 | 19.3 | 0.00 | 0.00 | 0.00 | 83 | 1007.5 |
| 20260505152403 | 25 | 78 | 11.3 | 19.3 | 0.00 | 0.00 | 0.00 | 83 | 1007.6 |
| 20260505152305 | 25 | 103 | 9.7 | 19.3 | 0.00 | 0.00 | 0.00 | 83 | 1007.5 |
| 20260505152203 | 25 | 94 | 11.3 | 19.3 | 0.00 | 0.00 | 0.00 | 83 | 1007.6 |
| 20260505152103 | 25 | 111 | 11.3 | 19.3 | 0.00 | 0.00 | 0.00 | 83 | 1007.5 |
| 20260505152003 | 25 | 117 | 9.7 | 19.3 | 0.00 | 0.00 | 0.00 | 83 | 1007.5 |
| 20260505151902 | 25 | 117 | 9.7 | 20.9 | 0.00 | 0.00 | 0.00 | 83 | 1007.5 |
| 20260505151802 | 25 | 100 | 8.0 | 20.9 | 0.00 | 0.00 | 0.00 | 84 | 1007.4 |
| 20260505151703 | 25 | 87 | 8.0 | 20.9 | 0.00 | 0.00 | 0.00 | 84 | 1007.4 |
| 20260505151603 | 25 | 124 | 8.0 | 24.1 | 0.00 | 0.00 | 0.00 | 84 | 1007.5 |
| 20260505151503 | 25 | 94 | 6.4 | 24.1 | 0.00 | 0.00 | 0.00 | 84 | 1007.5 |
| 20260505151403 | 25 | 140 | 9.7 | 24.1 | 0.00 | 0.00 | 0.00 | 84 | 1007.4 |
| 20260505151303 | 25 | 118 | 9.7 | 24.1 | 0.00 | 0.00 | 0.00 | 84 | 1007.5 |
| 20260505151203 | 25 | 96 | 11.3 | 24.1 | 0.00 | 0.00 | 0.00 | 84 | 1007.5 |
| 20260505151103 | 25 | 86 | 11.3 | 24.1 | 0.00 | 0.00 | 0.00 | 84 | 1007.5 |
| 20260505151004 | 25 | 123 | 12.9 | 24.1 | 0.00 | 0.00 | 0.00 | 84 | 1007.5 |
| 20260505150903 | 25 | 94 | 11.3 | 24.1 | 0.00 | 0.00 | 0.00 | 84 | 1007.5 |
| 20260505150803 | 25 | 102 | 12.9 | 24.1 | 0.00 | 0.00 | 0.00 | 84 | 1007.5 |
| 20260505150702 | 25 | 82 | 14.5 | 24.1 | 0.00 | 0.00 | 0.00 | 84 | 1007.5 |
| 20260505150604 | 25 | 134 | 12.9 | 24.1 | 0.00 | 0.00 | 0.00 | 84 | 1007.5 |
| 20260505150502 | 25 | 124 | 11.3 | 22.5 | 0.00 | 0.00 | 0.00 | 84 | 1007.6 |
| 20260505150402 | 25 | 111 | 11.3 | 22.5 | 0.00 | 0.00 | 0.00 | 84 | 1007.6 |
| 20260505150304 | 25 | 106 | 9.7 | 22.5 | 0.00 | 0.00 | 0.00 | 84 | 1007.6 |
| 20260505150203 | 25 | 86 | 8.0 | 22.5 | 0.00 | 0.00 | 0.00 | 84 | 1007.5 |
| 20260505140602 | 25 | 100 | 9.7 | 29.0 | 0.00 | 0.00 | 0.00 | 86 | 1007.2 |
| 20260505140502 | 25 | 83 | 11.3 | 29.0 | 0.00 | 0.00 | 0.00 | 86 | 1007.2 |
| 20260505140403 | 25 | 113 | 14.5 | 29.0 | 0.00 | 0.00 | 0.00 | 87 | 1007.3 |
| 20260505140301 | 25 | 93 | 16.1 | 29.0 | 0.00 | 0.00 | 0.00 | 87 | 1007.4 |
| 20260505140203 | 24 | 87 | 12.9 | 25.7 | 0.00 | 0.00 | 0.00 | 87 | 1007.4 |
| 20260505130212 | 23 | 65 | 9.7 | 25.7 | 0.00 | 0.00 | 0.00 | 88 | 1007.1 |
| 20260505130111 | 23 | 79 | 9.7 | 25.7 | 0.00 | 0.00 | 0.00 | 88 | 1007.0 |
| 20260505125003 | 23 | 82 | 8.0 | 17.7 | 0.00 | 0.00 | 0.00 | 89 | 1007.0 |
| 20260505124903 | 23 | 104 | 6.4 | 16.1 | 0.00 | 0.00 | 0.00 | 89 | 1007.0 |
| 20260505124803 | 23 | 76 | 6.4 | 16.1 | 0.00 | 0.00 | 0.00 | 89 | 1007.0 |
| 20260505124704 | 23 | 69 | 6.4 | 16.1 | 0.00 | 0.00 | 0.00 | 89 | 1007.1 |
| 20260505124603 | 23 | 96 | 6.4 | 16.1 | 0.00 | 0.00 | 0.00 | 89 | 1007.0 |
| 20260505124502 | 23 | 99 | 6.4 | 19.3 | 0.00 | 0.00 | 0.00 | 89 | 1007.0 |
| 20260505124403 | 23 | 73 | 6.4 | 19.3 | 0.00 | 0.00 | 0.00 | 89 | 1007.0 |
| 20260505124304 | 23 | 72 | 6.4 | 19.3 | 0.00 | 0.00 | 0.00 | 89 | 1007.0 |
| 20260505124202 | 23 | 80 | 8.0 | 19.3 | 0.00 | 0.00 | 0.00 | 89 | 1007.1 |
| 20260505124101 | 23 | 79 | 6.4 | 19.3 | 0.00 | 0.00 | 0.00 | 89 | 1007.1 |
| 20260505124002 | 23 | 87 | 6.4 | 19.3 | 0.00 | 0.00 | 0.00 | 89 | 1007.1 |
| 20260505123903 | 23 | 76 | 6.4 | 19.3 | 0.00 | 0.00 | 0.00 | 90 | 1007.1 |
| 20260505123802 | 23 | 47 | 6.4 | 19.3 | 0.00 | 0.00 | 0.00 | 90 | 1007.1 |
| 20260505123702 | 23 | 0 | 9.7 | 19.3 | 0.00 | 0.00 | 0.00 | 89 | 1007.1 |
| 20260505123604 | 23 | 0 | 11.3 | 19.3 | 0.00 | 0.00 | 0.00 | 89 | 1007.1 |
| 20260505123504 | 23 | 71 | 8.0 | 16.1 | 0.00 | 0.00 | 0.00 | 89 | 1007.2 |
| 20260505123401 | 23 | 72 | 8.0 | 16.1 | 0.00 | 0.00 | 0.00 | 89 | 1007.1 |
| 20260505123304 | 23 | 45 | 8.0 | 16.1 | 0.00 | 0.00 | 0.00 | 89 | 1007.1 |
| 20260505123203 | 23 | 45 | 6.4 | 16.1 | 0.00 | 0.00 | 0.00 | 89 | 1007.1 |
| 20260505123104 | 23 | 25 | 8.0 | 16.1 | 0.00 | 0.00 | 0.00 | 89 | 1007.0 |
| 20260505123003 | 23 | 45 | 8.0 | 16.1 | 0.00 | 0.00 | 0.00 | 90 | 1007.0 |
| 20260505122904 | 23 | 24 | 6.4 | 16.1 | 0.00 | 0.00 | 0.00 | 90 | 1007.0 |
| 20260505122804 | 23 | 42 | 6.4 | 16.1 | 0.00 | 0.00 | 0.00 | 90 | 1007.1 |
| 20260505122702 | 23 | 0 | 4.8 | 16.1 | 0.00 | 0.00 | 0.00 | 90 | 1007.2 |
| 20260505122602 | 23 | 35 | 4.8 | 11.3 | 0.00 | 0.00 | 0.00 | 90 | 1007.1 |
| 20260505122503 | 23 | 0 | 6.4 | 11.3 | 0.00 | 0.00 | 0.00 | 90 | 1007.1 |
| 20260505122403 | 23 | 48 | 6.4 | 11.3 | 0.00 | 0.00 | 0.00 | 90 | 1007.0 |
| 20260505122305 | 23 | 34 | 4.8 | 11.3 | 0.00 | 0.00 | 0.00 | 90 | 1007.0 |
| 20260505122203 | 23 | 47 | 4.8 | 11.3 | 0.00 | 0.00 | 0.00 | 90 | 1007.1 |
| 20260505122102 | 23 | 39 | 4.8 | 11.3 | 0.00 | 0.00 | 0.00 | 90 | 1007.1 |
| 20260505122002 | 23 | 31 | 3.2 | 11.3 | 0.00 | 0.00 | 0.00 | 90 | 1007.2 |
| 20260505121903 | 23 | 37 | 4.8 | 11.3 | 0.00 | 0.00 | 0.00 | 90 | 1007.1 |
| 20260505121801 | 23 | 0 | 6.4 | 16.1 | 0.00 | 0.00 | 0.00 | 90 | 1007.1 |
| 20260505121702 | 23 | 0 | 4.8 | 16.1 | 0.00 | 0.00 | 0.00 | 90 | 1007.0 |
| 20260505121602 | 23 | 41 | 3.2 | 16.1 | 0.00 | 0.00 | 0.00 | 90 | 1007.0 |
| 20260505121502 | 23 | 0 | 4.8 | 16.1 | 0.00 | 0.00 | 0.00 | 90 | 1007.0 |
| 20260505121401 | 23 | 42 | 4.8 | 16.1 | 0.00 | 0.00 | 0.00 | 90 | 1007.0 |
| 20260505121301 | 23 | 34 | 4.8 | 16.1 | 0.00 | 0.00 | 0.00 | 90 | 1006.9 |
| 20260505121203 | 23 | 28 | 4.8 | 17.7 | 0.00 | 0.00 | 0.00 | 89 | 1006.8 |
| 20260505121101 | 23 | 32 | 6.4 | 17.7 | 0.00 | 0.00 | 0.00 | 89 | 1006.7 |
| 20260505121001 | 23 | 45 | 6.4 | 17.7 | 0.00 | 0.00 | 0.00 | 89 | 1006.7 |
| 20260505120901 | 23 | 32 | 6.4 | 17.7 | 0.00 | 0.00 | 0.00 | 89 | 1006.7 |
| 20260505120802 | 23 | 27 | 6.4 | 17.7 | 0.00 | 0.00 | 0.00 | 89 | 1006.6 |
| 20260505120701 | 23 | 35 | 6.4 | 17.7 | 0.00 | 0.00 | 0.00 | 89 | 1006.5 |
| 20260505120601 | 23 | 45 | 6.4 | 24.1 | 0.00 | 0.00 | 0.00 | 89 | 1006.6 |
| 20260505120503 | 23 | 41 | 6.4 | 24.1 | 0.00 | 0.00 | 0.00 | 89 | 1006.6 |
| 20260505120401 | 23 | 0 | 9.7 | 24.1 | 0.00 | 0.00 | 0.00 | 89 | 1006.5 |
| 20260505120300 | 23 | 0 | 9.7 | 24.1 | 0.00 | 0.00 | 0.00 | 89 | 1006.6 |
| 20260505120202 | 23 | 41 | 6.4 | 24.1 | 0.00 | 0.00 | 0.00 | 89 | 1006.6 |
| 20260505120002 | 23 | 37 | 8.0 | 24.1 | 0.00 | 0.00 | 0.00 | 89 | 1006.7 |
| 20260505115901 | 23 | 44 | 8.0 | 24.1 | 0.00 | 0.00 | 0.00 | 89 | 1006.6 |
| 20260505115802 | 23 | 45 | 8.0 | 24.1 | 0.00 | 0.00 | 0.00 | 89 | 1006.6 |
| 20260505115702 | 23 | 39 | 8.0 | 24.1 | 0.00 | 0.00 | 0.00 | 89 | 1006.6 |
| 20260505115601 | 23 | 37 | 6.4 | 22.5 | 0.00 | 0.00 | 0.00 | 89 | 1006.5 |
| 20260505115502 | 23 | 0 | 6.4 | 22.5 | 0.00 | 0.00 | 0.00 | 89 | 1006.6 |
| 20260505115402 | 23 | 30 | 6.4 | 22.5 | 0.00 | 0.00 | 0.00 | 89 | 1006.6 |
| 20260505115300 | 23 | 52 | 8.0 | 22.5 | 0.00 | 0.00 | 0.00 | 89 | 1006.6 |
| 20260505115200 | 23 | 49 | 9.7 | 22.5 | 0.00 | 0.00 | 0.00 | 89 | 1006.6 |
| 20260505115103 | 23 | 44 | 9.7 | 22.5 | 0.00 | 0.00 | 0.00 | 89 | 1006.6 |
| 20260505115000 | 23 | 34 | 8.0 | 22.5 | 0.00 | 0.00 | 0.00 | 89 | 1006.7 |
| 20260505114901 | 23 | 56 | 9.7 | 22.5 | 0.00 | 0.00 | 0.00 | 89 | 1006.7 |
| 20260505114801 | 23 | 44 | 14.5 | 22.5 | 0.00 | 0.00 | 0.00 | 89 | 1006.8 |
| 20260505114702 | 23 | 0 | 12.9 | 22.5 | 0.00 | 0.00 | 0.00 | 89 | 1006.9 |
| 20260505114601 | 23 | 41 | 9.7 | 22.5 | 0.00 | 0.00 | 0.00 | 89 | 1006.9 |
| 20260505114500 | 23 | 0 | 9.7 | 22.5 | 0.00 | 0.00 | 0.00 | 89 | 1006.9 |
| 20260505114402 | 23 | 41 | 9.7 | 22.5 | 0.00 | 0.00 | 0.00 | 89 | 1006.9 |
| 20260505114301 | 22 | 0 | 9.7 | 22.5 | 0.00 | 0.00 | 0.00 | 89 | 1007.0 |
| 20260505114201 | 23 | 0 | 8.0 | 19.3 | 0.00 | 0.00 | 0.00 | 89 | 1007.0 |
| 20260505114100 | 23 | 0 | 8.0 | 19.3 | 0.00 | 0.00 | 0.00 | 89 | 1007.1 |
| 20260505114000 | 22 | 0 | 8.0 | 19.3 | 0.00 | 0.00 | 0.00 | 89 | 1007.1 |
| 20260505113900 | 22 | 0 | 6.4 | 19.3 | 0.00 | 0.00 | 0.00 | 89 | 1007.0 |
| 20260505113800 | 23 | 0 | 3.2 | 19.3 | 0.00 | 0.00 | 0.00 | 89 | 1007.0 |
| 20260505113700 | 22 | 0 | 6.4 | 19.3 | 0.00 | 0.00 | 0.00 | 89 | 1007.1 |
| 20260505113600 | 22 | 32 | 9.7 | 19.3 | 0.00 | 0.00 | 0.00 | 89 | 1006.9 |
| 20260505113501 | 22 | 28 | 6.4 | 17.7 | 0.00 | 0.00 | 0.00 | 89 | 1007.0 |
| 20260505113401 | 22 | 34 | 6.4 | 17.7 | 0.00 | 0.00 | 0.00 | 89 | 1006.9 |
| 20260505113300 | 22 | 42 | 8.0 | 17.7 | 0.00 | 0.00 | 0.00 | 89 | 1006.9 |
| 20260505113200 | 22 | 41 | 8.0 | 17.7 | 0.00 | 0.00 | 0.00 | 90 | 1006.9 |
| 20260505113100 | 22 | 0 | 8.0 | 17.7 | 0.00 | 0.00 | 0.00 | 89 | 1006.9 |
| 20260505113002 | 22 | 0 | 9.7 | 17.7 | 0.00 | 0.00 | 0.00 | 89 | 1006.9 |
| 20260505112901 | 22 | 39 | 8.0 | 17.7 | 0.00 | 0.00 | 0.00 | 89 | 1006.9 |
| 20260505112800 | 22 | 47 | 8.0 | 17.7 | 0.00 | 0.00 | 0.00 | 89 | 1006.9 |
| 20260505112701 | 22 | 39 | 6.4 | 14.5 | 0.00 | 0.00 | 0.00 | 89 | 1006.8 |
| 20260505112602 | 22 | 47 | 6.4 | 14.5 | 0.00 | 0.00 | 0.00 | 89 | 1006.8 |
| 20260505112501 | 22 | 0 | 8.0 | 14.5 | 0.00 | 0.00 | 0.00 | 89 | 1006.7 |
| 20260505112400 | 22 | 44 | 6.4 | 16.1 | 0.00 | 0.00 | 0.00 | 89 | 1006.7 |
| 20260505112301 | 22 | 41 | 4.8 | 16.1 | 0.00 | 0.00 | 0.00 | 89 | 1006.7 |
| 20260505112200 | 22 | 42 | 3.2 | 16.1 | 0.00 | 0.00 | 0.00 | 89 | 1006.7 |
| 20260505112100 | 22 | 35 | 6.4 | 16.1 | 0.00 | 0.00 | 0.00 | 89 | 1006.7 |
| 20260505112000 | 22 | 41 | 8.0 | 16.1 | 0.00 | 0.00 | 0.00 | 89 | 1006.8 |
| 20260505111900 | 22 | 45 | 6.4 | 16.1 | 0.00 | 0.00 | 0.00 | 89 | 1006.7 |
| 20260505111800 | 22 | 41 | 6.4 | 16.1 | 0.00 | 0.00 | 0.00 | 90 | 1006.7 |
| 20260505111701 | 22 | 44 | 4.8 | 16.1 | 0.00 | 0.00 | 0.00 | 89 | 1006.7 |
| 20260505111602 | 22 | 42 | 6.4 | 16.1 | 0.00 | 0.00 | 0.00 | 89 | 1006.7 |
| 20260505111501 | 22 | 0 | 6.4 | 16.1 | 0.00 | 0.00 | 0.00 | 89 | 1006.7 |
| 20260505111400 | 22 | 42 | 6.4 | 14.5 | 0.00 | 0.00 | 0.00 | 89 | 1006.8 |
| 20260505111301 | 22 | 47 | 4.8 | 11.3 | 0.00 | 0.00 | 0.00 | 89 | 1006.7 |
| 20260505111201 | 22 | 32 | 3.2 | 14.5 | 0.00 | 0.00 | 0.00 | 89 | 1006.7 |
| 20260505111101 | 22 | 31 | 4.8 | 14.5 | 0.00 | 0.00 | 0.00 | 89 | 1006.6 |
| 20260505111002 | 22 | 32 | 3.2 | 16.1 | 0.00 | 0.00 | 0.00 | 89 | 1006.6 |
| 20260505110902 | 22 | 25 | 1.6 | 16.1 | 0.00 | 0.00 | 0.00 | 90 | 1006.5 |